Time,TemperatureF,DewpointF,PressureIn,WindDirection,WindDirectionDegrees,WindSpeedMPH,WindSpeedGustMPH,Humidity,HourlyPrecipIn,Conditions,Clouds,dailyrainin,SoftwareType,DateUTC
2013-06-14 00:01:00,67.1,42.6,29.12,NE,45,5.8,5.8,41,0.00,CLR,,0.00,WeatherDisplay:10.37,2013-06-14 05:01:00,
2013-06-14 00:02:00,67.1,42.6,29.12,ENE,68,4.0,4.0,41,0.00,CLR,,0.00,WeatherDisplay:10.37,2013-06-14 05:02:00,
2013-06-14 00:04:00,67.1,43.2,29.12,ENE,68,4.6,4.6,42,0.00,CLR,,0.00,WeatherDisplay:10.37,2013-06-14 05:04:00,
2013-06-14 00:05:00,67.1,43.2,29.12,NE,56,2.0,0.0,42,0.00,CLR,,0.00,WeatherDisplay:10.37,2013-06-14 05:05:00,
2013-06-14 00:06:00,67.1,43.2,29.12,NE,45,3.5,3.5,42,0.00,CLR,,0.00,WeatherDisplay:10.37,2013-06-14 05:06:00,
2013-06-14 00:07:00,67.1,43.2,29.12,ENE,68,3.5,3.5,42,0.00,CLR,,0.00,WeatherDisplay:10.37,2013-06-14 05:07:00,
2013-06-14 00:09:00,66.9,43.1,29.12,ENE,68,2.4,2.4,42,0.00,CLR,,0.00,WeatherDisplay:10.37,2013-06-14 05:09:00,
2013-06-14 00:12:00,66.9,43.1,29.12,NNE,22,4.6,4.6,42,0.00,CLR,,0.00,WeatherDisplay:10.37,2013-06-14 05:12:00,
2013-06-14 00:13:00,66.9,43.7,29.12,NNE,22,3.5,3.5,43,0.00,CLR,,0.00,WeatherDisplay:10.37,2013-06-14 05:13:00,
2013-06-14 00:14:00,66.9,43.7,29.12,North,0,3.5,3.5,43,0.00,CLR,,0.00,WeatherDisplay:10.37,2013-06-14 05:14:00,
2013-06-14 00:16:00,66.9,43.1,29.12,ENE,68,2.4,2.4,42,0.00,CLR,,0.00,WeatherDisplay:10.37,2013-06-14 05:16:00,
2013-06-14 00:18:00,66.9,43.1,29.12,ENE,68,2.3,2.6,42,0.00,CLR,,0.00,WeatherDisplay:10.37,2013-06-14 05:18:00,
2013-06-14 00:20:00,66.9,43.1,29.12,NE,44,2.0,0.0,42,0.00,CLR,,0.00,WeatherDisplay:10.37,2013-06-14 05:20:00,
2013-06-14 00:22:00,66.7,42.9,29.12,NNE,22,1.6,1.6,42,0.00,CLR,,0.00,WeatherDisplay:10.37,2013-06-14 05:22:00,
2013-06-14 00:23:00,66.7,42.9,29.12,East,90,3.5,3.5,42,0.00,CLR,,0.00,WeatherDisplay:10.37,2013-06-14 05:23:00,
2013-06-14 00:24:00,66.7,42.9,29.12,NE,45,3.5,3.5,42,0.00,CLR,,0.00,WeatherDisplay:10.37,2013-06-14 05:24:00,
2013-06-14 00:25:00,66.7,42.9,29.12,ENE,57,2.0,0.0,42,0.00,CLR,,0.00,WeatherDisplay:10.37,2013-06-14 05:25:00,
2013-06-14 00:28:00,66.7,42.9,29.12,NE,45,1.1,1.1,42,0.00,CLR,,0.00,WeatherDisplay:10.37,2013-06-14 05:28:00,
2013-06-14 00:30:00,66.6,42.7,29.12,NE,45,2.0,0.0,42,0.00,CLR,,0.00,WeatherDisplay:10.37,2013-06-14 05:30:00,
2013-06-14 00:32:00,66.6,42.7,29.12,ENE,68,4.6,4.6,42,0.00,CLR,,0.00,WeatherDisplay:10.37,2013-06-14 05:32:00,
2013-06-14 00:33:00,66.6,43.4,29.12,NE,45,4.3,4.3,43,0.00,CLR,,0.00,WeatherDisplay:10.37,2013-06-14 05:33:00,
2013-06-14 00:34:00,66.4,43.2,29.12,ENE,68,4.6,4.6,43,0.00,CLR,,0.00,WeatherDisplay:10.37,2013-06-14 05:34:00,
2013-06-14 00:35:00,66.4,43.2,29.12,ENE,68,4.6,4.6,43,0.00,CLR,,0.00,WeatherDisplay:10.37,2013-06-14 05:35:00,
2013-06-14 00:38:00,66.4,43.2,29.12,ENE,68,3.5,3.5,43,0.00,CLR,,0.00,WeatherDisplay:10.37,2013-06-14 05:38:00,
2013-06-14 00:39:00,66.4,43.2,29.12,NE,45,3.8,3.8,43,0.00,CLR,,0.00,WeatherDisplay:10.37,2013-06-14 05:39:00,
2013-06-14 00:40:00,66.4,43.2,29.12,ENE,68,3.5,3.5,43,0.00,CLR,,0.00,WeatherDisplay:10.37,2013-06-14 05:40:00,
2013-06-14 00:41:00,66.4,43.2,29.12,ENE,68,4.6,4.6,43,0.00,CLR,,0.00,WeatherDisplay:10.37,2013-06-14 05:41:00,
2013-06-14 00:44:00,66.2,43.6,29.12,ENE,68,3.8,4.0,44,0.00,CLR,,0.00,WeatherDisplay:10.37,2013-06-14 05:44:00,
2013-06-14 00:45:00,66.2,43.6,29.12,ENE,68,4.6,4.6,44,0.00,CLR,,0.00,WeatherDisplay:10.37,2013-06-14 05:45:00,
2013-06-14 00:46:00,66.2,43.6,29.12,NNE,22,6.2,6.2,44,0.00,CLR,,0.00,WeatherDisplay:10.37,2013-06-14 05:46:00,
2013-06-14 00:51:00,66.4,43.8,29.12,ENE,68,5.8,5.8,44,0.00,CLR,,0.00,WeatherDisplay:10.37,2013-06-14 05:51:00,
2013-06-14 00:52:00,66.6,44.0,29.12,ENE,68,5.8,5.8,44,0.00,CLR,,0.00,WeatherDisplay:10.37,2013-06-14 05:52:00,
2013-06-14 00:53:00,66.6,44.0,29.12,NNE,22,5.8,5.8,44,0.00,CLR,,0.00,WeatherDisplay:10.37,2013-06-14 05:53:00,
2013-06-14 00:54:00,66.6,44.0,29.12,NE,45,5.8,5.8,44,0.00,CLR,,0.00,WeatherDisplay:10.37,2013-06-14 05:54:00,
2013-06-14 00:57:00,66.6,44.5,29.12,ENE,68,5.8,5.8,45,0.00,CLR,,0.00,WeatherDisplay:10.37,2013-06-14 05:57:00,
2013-06-14 00:58:00,66.6,44.5,29.12,NNE,22,4.6,4.6,45,0.00,CLR,,0.00,WeatherDisplay:10.37,2013-06-14 05:58:00,
2013-06-14 00:59:00,66.6,44.5,29.12,NE,45,5.8,5.8,45,0.00,CLR,,0.00,WeatherDisplay:10.37,2013-06-14 05:59:00,
2013-06-14 01:01:00,66.6,44.5,29.12,NNE,22,5.8,5.8,45,0.00,CLR,,0.00,WeatherDisplay:10.37,2013-06-14 06:01:00,
2013-06-14 01:04:00,66.6,44.5,29.15,NE,45,5.9,5.9,45,0.00,CLR,,0.00,WeatherDisplay:10.37,2013-06-14 06:04:00,
2013-06-14 01:05:00,66.6,44.5,29.15,ENE,68,5.8,5.8,45,0.00,CLR,,0.00,WeatherDisplay:10.37,2013-06-14 06:05:00,
2013-06-14 01:07:00,66.6,45.1,29.15,ESE,112,5.8,5.8,46,0.00,CLR,,0.00,WeatherDisplay:10.37,2013-06-14 06:07:00,
2013-06-14 01:08:00,66.6,45.1,29.15,ENE,68,4.9,4.9,46,0.00,CLR,,0.00,WeatherDisplay:10.37,2013-06-14 06:08:00,
2013-06-14 01:10:00,66.6,45.7,29.15,ENE,68,9.2,9.2,47,0.00,CLR,,0.00,WeatherDisplay:10.37,2013-06-14 06:10:00,
2013-06-14 01:12:00,66.4,45.0,29.15,ENE,68,5.8,5.8,46,0.00,CLR,,0.00,WeatherDisplay:10.37,2013-06-14 06:12:00,
2013-06-14 01:13:00,66.4,46.1,29.15,NNE,22,5.9,5.9,48,0.00,CLR,,0.00,WeatherDisplay:10.37,2013-06-14 06:13:00,
2013-06-14 01:15:00,66.4,45.5,29.15,ENE,68,5.8,5.8,47,0.00,CLR,,0.00,WeatherDisplay:10.37,2013-06-14 06:15:00,
2013-06-14 01:17:00,66.4,46.1,29.15,NE,45,8.1,8.1,48,0.00,CLR,,0.00,WeatherDisplay:10.37,2013-06-14 06:17:00,
2013-06-14 01:19:00,66.2,45.9,29.15,ENE,68,6.9,6.9,48,0.00,CLR,,0.00,WeatherDisplay:10.37,2013-06-14 06:19:00,
2013-06-14 01:20:00,66.2,46.5,29.15,ESE,112,6.9,6.9,49,0.00,CLR,,0.00,WeatherDisplay:10.37,2013-06-14 06:20:00,
2013-06-14 01:21:00,66.2,46.5,29.15,ENE,68,9.2,9.2,49,0.00,CLR,,0.00,WeatherDisplay:10.37,2013-06-14 06:21:00,
2013-06-14 01:24:00,66.0,46.3,29.15,ESE,112,6.9,6.9,49,0.00,CLR,,0.00,WeatherDisplay:10.37,2013-06-14 06:24:00,
2013-06-14 01:25:00,66.0,46.3,29.15,ENE,68,6.2,6.2,49,0.00,CLR,,0.00,WeatherDisplay:10.37,2013-06-14 06:25:00,
2013-06-14 01:26:00,66.0,46.3,29.15,ESE,112,5.8,5.8,49,0.00,CLR,,0.00,WeatherDisplay:10.37,2013-06-14 06:26:00,
2013-06-14 01:29:00,65.8,45.6,29.15,NE,45,8.1,8.1,48,0.00,CLR,,0.00,WeatherDisplay:10.37,2013-06-14 06:29:00,
2013-06-14 01:30:00,65.8,45.6,29.15,SSE,158,4.9,4.9,48,0.00,CLR,,0.00,WeatherDisplay:10.37,2013-06-14 06:30:00,
2013-06-14 01:31:00,65.8,45.6,29.15,NNE,22,8.1,8.1,48,0.00,CLR,,0.00,WeatherDisplay:10.37,2013-06-14 06:31:00,
2013-06-14 01:32:00,65.8,45.6,29.15,East,90,8.1,8.1,48,0.00,CLR,,0.00,WeatherDisplay:10.37,2013-06-14 06:32:00,
2013-06-14 01:36:00,65.7,45.4,29.15,East,90,4.6,4.6,48,0.00,CLR,,0.00,WeatherDisplay:10.37,2013-06-14 06:36:00,
2013-06-14 01:37:00,65.7,45.4,29.15,East,90,3.5,3.5,48,0.00,CLR,,0.00,WeatherDisplay:10.37,2013-06-14 06:37:00,
2013-06-14 01:38:00,65.7,45.4,29.15,East,90,5.8,5.8,48,0.00,CLR,,0.00,WeatherDisplay:10.37,2013-06-14 06:38:00,
2013-06-14 01:39:00,65.7,45.4,29.15,NNE,22,5.8,5.8,48,0.00,CLR,,0.00,WeatherDisplay:10.37,2013-06-14 06:39:00,
2013-06-14 01:41:00,65.5,45.8,29.15,SSE,158,6.9,6.9,49,0.00,CLR,,0.00,WeatherDisplay:10.37,2013-06-14 06:41:00,
2013-06-14 01:43:00,65.5,45.8,29.15,ENE,68,3.5,3.5,49,0.00,CLR,,0.00,WeatherDisplay:10.37,2013-06-14 06:43:00,
2013-06-14 01:45:00,65.5,45.3,29.15,ESE,112,3.5,3.5,48,0.00,CLR,,0.00,WeatherDisplay:10.37,2013-06-14 06:45:00,
2013-06-14 01:46:00,65.3,45.6,29.15,ENE,68,6.0,6.0,49,0.00,CLR,,0.00,WeatherDisplay:10.37,2013-06-14 06:46:00,
2013-06-14 01:48:00,65.3,45.6,29.15,ENE,68,5.8,5.8,49,0.00,CLR,,0.00,WeatherDisplay:10.37,2013-06-14 06:48:00,
2013-06-14 01:49:00,65.1,45.5,29.15,East,90,4.6,4.6,49,0.00,CLR,,0.00,WeatherDisplay:10.37,2013-06-14 06:49:00,
2013-06-14 01:50:00,65.1,45.5,29.15,East,90,4.6,4.6,49,0.00,CLR,,0.00,WeatherDisplay:10.37,2013-06-14 06:50:00,
2013-06-14 01:52:00,65.1,45.5,29.15,ESE,112,3.5,3.5,49,0.00,CLR,,0.00,WeatherDisplay:10.37,2013-06-14 06:52:00,
2013-06-14 01:55:00,64.9,45.3,29.15,SSE,158,5.8,5.8,49,0.00,CLR,,0.00,WeatherDisplay:10.37,2013-06-14 06:55:00,
2013-06-14 01:56:00,64.9,45.3,29.15,NE,45,3.5,3.5,49,0.00,CLR,,0.00,WeatherDisplay:10.37,2013-06-14 06:56:00,
2013-06-14 02:00:00,64.8,45.1,29.15,NE,45,4.6,4.6,49,0.00,CLR,,0.00,WeatherDisplay:10.37,2013-06-14 07:00:00,
2013-06-14 02:01:00,64.8,45.1,29.15,ENE,68,4.6,4.6,49,0.00,CLR,,0.00,WeatherDisplay:10.37,2013-06-14 07:01:00,
2013-06-14 02:02:00,64.8,45.1,29.15,ESE,112,4.7,4.7,49,0.00,CLR,,0.00,WeatherDisplay:10.37,2013-06-14 07:02:00,
2013-06-14 02:03:00,64.8,45.1,29.18,ENE,68,4.6,4.6,49,0.00,CLR,,0.00,WeatherDisplay:10.37,2013-06-14 07:03:00,
2013-06-14 02:05:00,64.8,45.1,29.18,East,88,3.0,0.0,49,0.00,CLR,,0.00,WeatherDisplay:10.37,2013-06-14 07:05:00,
2013-06-14 02:06:00,64.6,45.0,29.18,SE,135,4.6,4.6,49,0.00,CLR,,0.00,WeatherDisplay:10.37,2013-06-14 07:06:00,
2013-06-14 02:08:00,64.6,45.0,29.18,ESE,112,10.5,10.5,49,0.00,CLR,,0.00,WeatherDisplay:10.37,2013-06-14 07:08:00,
2013-06-14 02:10:00,64.6,45.0,29.18,NE,45,5.9,5.9,49,0.00,CLR,,0.00,WeatherDisplay:10.37,2013-06-14 07:10:00,
2013-06-14 02:11:00,64.6,45.5,29.18,SE,135,9.2,9.2,50,0.00,CLR,,0.00,WeatherDisplay:10.37,2013-06-14 07:11:00,
2013-06-14 02:12:00,64.4,44.8,29.18,SSW,202,5.8,5.8,49,0.00,CLR,,0.00,WeatherDisplay:10.37,2013-06-14 07:12:00,
2013-06-14 02:13:00,64.4,45.3,29.18,ESE,112,2.0,2.0,50,0.00,CLR,,0.00,WeatherDisplay:10.37,2013-06-14 07:13:00,
2013-06-14 02:14:00,64.4,44.8,29.18,SSE,158,3.5,3.5,49,0.00,CLR,,0.00,WeatherDisplay:10.37,2013-06-14 07:14:00,
2013-06-14 02:16:00,64.4,44.8,29.18,SE,135,5.4,5.4,49,0.00,CLR,,0.00,WeatherDisplay:10.37,2013-06-14 07:16:00,
2013-06-14 02:18:00,64.2,44.6,29.20,East,90,4.6,4.6,49,0.00,CLR,,0.00,WeatherDisplay:10.37,2013-06-14 07:18:00,
2013-06-14 02:19:00,64.2,44.6,29.20,NNE,22,3.5,3.5,49,0.00,CLR,,0.00,WeatherDisplay:10.37,2013-06-14 07:19:00,
2013-06-14 02:20:00,64.2,44.6,29.20,ESE,112,2.4,2.4,49,0.00,CLR,,0.00,WeatherDisplay:10.37,2013-06-14 07:20:00,
2013-06-14 02:24:00,64.0,44.5,29.20,ENE,68,4.6,4.6,49,0.00,CLR,,0.00,WeatherDisplay:10.37,2013-06-14 07:24:00,
2013-06-14 02:25:00,64.0,44.5,29.20,SSE,158,4.0,4.0,49,0.00,CLR,,0.00,WeatherDisplay:10.37,2013-06-14 07:25:00,
2013-06-14 02:26:00,64.0,44.5,29.20,SSE,158,4.6,4.6,49,0.00,CLR,,0.00,WeatherDisplay:10.37,2013-06-14 07:26:00,
2013-06-14 02:27:00,64.0,44.5,29.20,East,90,2.3,2.4,49,0.00,CLR,,0.00,WeatherDisplay:10.37,2013-06-14 07:27:00,
2013-06-14 02:30:00,63.9,44.3,29.20,ESE,115,2.0,0.0,49,0.00,CLR,,0.00,WeatherDisplay:10.37,2013-06-14 07:30:00,
2013-06-14 02:31:00,63.9,44.3,29.20,ESE,112,3.5,3.5,49,0.00,CLR,,0.00,WeatherDisplay:10.37,2013-06-14 07:31:00,
2013-06-14 02:32:00,63.9,44.3,29.20,SE,135,2.6,2.6,49,0.00,CLR,,0.00,WeatherDisplay:10.37,2013-06-14 07:32:00,
2013-06-14 02:34:00,63.9,44.3,29.18,SE,135,2.6,0.0,49,0.00,CLR,,0.00,WeatherDisplay:10.37,2013-06-14 07:34:00,
2013-06-14 02:35:00,63.7,44.2,29.18,SE,135,2.6,2.6,49,0.00,CLR,,0.00,WeatherDisplay:10.37,2013-06-14 07:35:00,
2013-06-14 02:37:00,63.7,44.2,29.18,East,90,3.6,3.6,49,0.00,CLR,,0.00,WeatherDisplay:10.37,2013-06-14 07:37:00,
2013-06-14 02:38:00,63.7,44.2,29.18,East,90,3.5,3.5,49,0.00,CLR,,0.00,WeatherDisplay:10.37,2013-06-14 07:38:00,
2013-06-14 02:42:00,63.5,44.0,29.18,SSE,158,3.3,3.3,49,0.00,CLR,,0.00,WeatherDisplay:10.37,2013-06-14 07:42:00,
2013-06-14 02:43:00,63.5,44.0,29.18,SE,135,4.6,4.6,49,0.00,CLR,,0.00,WeatherDisplay:10.37,2013-06-14 07:43:00,
2013-06-14 02:44:00,63.5,44.0,29.18,SE,135,3.1,3.1,49,0.00,CLR,,0.00,WeatherDisplay:10.37,2013-06-14 07:44:00,
2013-06-14 02:45:00,63.3,43.8,29.18,SE,135,3.5,3.5,49,0.00,CLR,,0.00,WeatherDisplay:10.37,2013-06-14 07:45:00,
2013-06-14 02:48:00,63.1,43.7,29.20,SE,135,5.8,5.8,49,0.00,CLR,,0.00,WeatherDisplay:10.37,2013-06-14 07:48:00,
2013-06-14 02:49:00,63.1,44.2,29.20,SE,135,4.6,4.6,50,0.00,CLR,,0.00,WeatherDisplay:10.37,2013-06-14 07:49:00,
2013-06-14 02:51:00,63.1,44.2,29.20,ESE,112,4.6,4.6,50,0.00,CLR,,0.00,WeatherDisplay:10.37,2013-06-14 07:51:00,
2013-06-14 02:53:00,63.1,44.7,29.20,SE,135,5.8,5.8,51,0.00,CLR,,0.00,WeatherDisplay:10.37,2013-06-14 07:53:00,
2013-06-14 02:54:00,63.0,44.5,29.20,East,90,3.5,3.5,51,0.00,CLR,,0.00,WeatherDisplay:10.37,2013-06-14 07:54:00,
2013-06-14 02:55:00,63.0,44.5,29.20,ENE,68,3.5,3.5,51,0.00,CLR,,0.00,WeatherDisplay:10.37,2013-06-14 07:55:00,
2013-06-14 02:56:00,63.0,44.5,29.20,SE,135,4.0,4.0,51,0.00,CLR,,0.00,WeatherDisplay:10.37,2013-06-14 07:56:00,
2013-06-14 02:59:00,63.0,44.5,29.20,SE,135,1.4,1.4,51,0.00,CLR,,0.00,WeatherDisplay:10.37,2013-06-14 07:59:00,
2013-06-14 03:00:00,63.0,44.5,29.20,East,90,2.2,2.2,51,0.00,CLR,,0.00,WeatherDisplay:10.37,2013-06-14 08:00:00,
2013-06-14 03:01:00,63.0,44.5,29.20,NE,45,4.6,4.6,51,0.00,CLR,,0.00,WeatherDisplay:10.37,2013-06-14 08:01:00,
2013-06-14 03:05:00,62.8,44.4,29.20,East,84,2.0,0.0,51,0.00,CLR,,0.00,WeatherDisplay:10.37,2013-06-14 08:05:00,
2013-06-14 03:06:00,62.8,43.9,29.20,SE,135,4.9,4.9,50,0.00,CLR,,0.00,WeatherDisplay:10.37,2013-06-14 08:06:00,
2013-06-14 03:07:00,62.6,44.2,29.20,East,90,4.6,4.6,51,0.00,CLR,,0.00,WeatherDisplay:10.37,2013-06-14 08:07:00,
2013-06-14 03:10:00,62.6,44.2,29.20,ESE,108,2.0,0.0,51,0.00,CLR,,0.00,WeatherDisplay:10.37,2013-06-14 08:10:00,
2013-06-14 03:12:00,62.6,44.2,29.20,South,180,3.5,3.5,51,0.00,CLR,,0.00,WeatherDisplay:10.37,2013-06-14 08:12:00,
2013-06-14 03:13:00,62.6,44.2,29.20,SSE,158,3.5,3.5,51,0.00,CLR,,0.00,WeatherDisplay:10.37,2013-06-14 08:13:00,
2013-06-14 03:14:00,62.4,44.0,29.20,South,180,2.3,2.3,51,0.00,CLR,,0.00,WeatherDisplay:10.37,2013-06-14 08:14:00,
2013-06-14 03:16:00,62.4,44.0,29.20,SSE,158,2.3,2.6,51,0.00,CLR,,0.00,WeatherDisplay:10.37,2013-06-14 08:16:00,
2013-06-14 03:18:00,62.4,44.0,29.20,SSE,158,3.5,0.0,51,0.00,CLR,,0.00,WeatherDisplay:10.37,2013-06-14 08:18:00,
2013-06-14 03:21:00,62.2,43.9,29.20,ESE,112,2.0,2.0,51,0.00,CLR,,0.00,WeatherDisplay:10.37,2013-06-14 08:21:00,
2013-06-14 03:23:00,62.2,43.9,29.20,ESE,112,3.5,3.5,51,0.00,CLR,,0.00,WeatherDisplay:10.37,2013-06-14 08:23:00,
2013-06-14 03:24:00,62.2,43.9,29.20,SE,135,2.3,2.3,51,0.00,CLR,,0.00,WeatherDisplay:10.37,2013-06-14 08:24:00,
2013-06-14 03:25:00,62.2,43.9,29.20,SE,134,2.0,0.0,51,0.00,CLR,,0.00,WeatherDisplay:10.37,2013-06-14 08:25:00,
2013-06-14 03:28:00,62.1,43.7,29.20,ESE,112,2.6,2.6,51,0.00,CLR,,0.00,WeatherDisplay:10.37,2013-06-14 08:28:00,
2013-06-14 03:30:00,62.1,43.7,29.20,ESE,113,0.0,0.0,51,0.00,CLR,,0.00,WeatherDisplay:10.37,2013-06-14 08:30:00,
2013-06-14 03:34:00,61.9,44.1,29.18,ENE,68,1.4,0.0,52,0.00,CLR,,0.00,WeatherDisplay:10.37,2013-06-14 08:34:00,
2013-06-14 03:35:00,61.9,44.1,29.18,East,85,1.0,0.0,52,0.00,CLR,,0.00,WeatherDisplay:10.37,2013-06-14 08:35:00,
2013-06-14 03:36:00,61.7,43.9,29.18,East,90,2.6,2.6,52,0.00,CLR,,0.00,WeatherDisplay:10.37,2013-06-14 08:36:00,
2013-06-14 03:40:00,61.7,43.4,29.18,East,90,4.6,4.6,51,0.00,CLR,,0.00,WeatherDisplay:10.37,2013-06-14 08:40:00,
2013-06-14 03:41:00,61.7,43.9,29.18,ESE,112,4.6,4.6,52,0.00,CLR,,0.00,WeatherDisplay:10.37,2013-06-14 08:41:00,
2013-06-14 03:43:00,61.7,43.9,29.18,ESE,112,3.6,0.0,52,0.00,CLR,,0.00,WeatherDisplay:10.37,2013-06-14 08:43:00,
2013-06-14 03:44:00,61.7,43.9,29.18,SE,135,3.5,3.5,52,0.00,CLR,,0.00,WeatherDisplay:10.37,2013-06-14 08:44:00,
2013-06-14 03:45:00,61.7,43.9,29.18,ENE,68,3.5,3.5,52,0.00,CLR,,0.00,WeatherDisplay:10.37,2013-06-14 08:45:00,
2013-06-14 03:48:00,61.5,43.7,29.18,SE,135,3.5,3.5,52,0.00,CLR,,0.00,WeatherDisplay:10.37,2013-06-14 08:48:00,
2013-06-14 03:50:00,61.5,43.7,29.20,SE,135,2.4,0.0,52,0.00,CLR,,0.00,WeatherDisplay:10.37,2013-06-14 08:50:00,
2013-06-14 03:53:00,61.5,43.7,29.20,ENE,68,2.3,2.3,52,0.00,CLR,,0.00,WeatherDisplay:10.37,2013-06-14 08:53:00,
2013-06-14 03:54:00,61.3,44.1,29.20,ENE,68,2.4,2.4,53,0.00,CLR,,0.00,WeatherDisplay:10.37,2013-06-14 08:54:00,
2013-06-14 03:55:00,61.3,44.1,29.20,East,90,2.0,0.0,53,0.00,CLR,,0.00,WeatherDisplay:10.37,2013-06-14 08:55:00,
2013-06-14 03:56:00,61.3,44.5,29.20,East,90,3.5,3.5,54,0.00,CLR,,0.00,WeatherDisplay:10.37,2013-06-14 08:56:00,
2013-06-14 03:58:00,61.3,44.1,29.20,East,90,2.3,2.3,53,0.00,CLR,,0.00,WeatherDisplay:10.37,2013-06-14 08:58:00,
2013-06-14 03:59:00,61.3,44.1,29.20,NNE,22,2.3,2.3,53,0.00,CLR,,0.00,WeatherDisplay:10.37,2013-06-14 08:59:00,
2013-06-14 04:00:00,61.2,43.9,29.20,ESE,112,2.3,2.3,53,0.00,CLR,,0.00,WeatherDisplay:10.37,2013-06-14 09:00:00,
2013-06-14 04:01:00,61.2,43.9,29.20,ESE,112,2.3,2.3,53,0.00,CLR,,0.00,WeatherDisplay:10.37,2013-06-14 09:01:00,
2013-06-14 04:03:00,61.2,43.9,29.20,ESE,112,3.5,3.5,53,0.00,CLR,,0.00,WeatherDisplay:10.37,2013-06-14 09:03:00,
2013-06-14 04:05:00,61.0,43.7,29.20,South,180,2.3,2.3,53,0.00,CLR,,0.00,WeatherDisplay:10.37,2013-06-14 09:05:00,
2013-06-14 04:06:00,61.0,43.7,29.20,SE,135,2.3,2.3,53,0.00,CLR,,0.00,WeatherDisplay:10.37,2013-06-14 09:06:00,
2013-06-14 04:07:00,61.0,43.7,29.20,SSE,158,2.4,2.4,53,0.00,CLR,,0.00,WeatherDisplay:10.37,2013-06-14 09:07:00,
2013-06-14 04:08:00,61.0,43.7,29.20,ESE,112,2.4,2.4,53,0.00,CLR,,0.00,WeatherDisplay:10.37,2013-06-14 09:08:00,
2013-06-14 04:10:00,61.0,43.7,29.20,SE,135,2.3,2.3,53,0.00,CLR,,0.00,WeatherDisplay:10.37,2013-06-14 09:10:00,
2013-06-14 04:12:00,61.0,43.7,29.20,SSE,158,2.3,2.3,53,0.00,CLR,,0.00,WeatherDisplay:10.37,2013-06-14 09:12:00,
2013-06-14 04:13:00,60.8,43.6,29.20,SSE,158,1.1,1.1,53,0.00,CLR,,0.00,WeatherDisplay:10.37,2013-06-14 09:13:00,
2013-06-14 04:14:00,60.8,43.6,29.20,ESE,112,1.1,1.1,53,0.00,CLR,,0.00,WeatherDisplay:10.37,2013-06-14 09:14:00,
2013-06-14 04:18:00,60.6,43.4,29.20,East,90,3.3,3.3,53,0.00,CLR,,0.00,WeatherDisplay:10.37,2013-06-14 09:18:00,
2013-06-14 04:19:00,60.6,43.9,29.20,East,90,3.5,3.5,54,0.00,CLR,,0.00,WeatherDisplay:10.37,2013-06-14 09:19:00,
2013-06-14 04:22:00,60.6,43.9,29.20,ENE,68,1.4,0.0,54,0.00,CLR,,0.00,WeatherDisplay:10.37,2013-06-14 09:22:00,
2013-06-14 04:23:00,60.6,43.9,29.20,ENE,68,2.3,2.3,54,0.00,CLR,,0.00,WeatherDisplay:10.37,2013-06-14 09:23:00,
2013-06-14 04:25:00,60.6,44.4,29.20,ENE,68,1.1,1.1,55,0.00,CLR,,0.00,WeatherDisplay:10.37,2013-06-14 09:25:00,
2013-06-14 04:26:00,60.4,44.2,29.20,NE,45,1.1,1.1,55,0.00,CLR,,0.00,WeatherDisplay:10.37,2013-06-14 09:26:00,
2013-06-14 04:29:00,60.4,44.2,29.20,ENE,68,0.0,0.9,55,0.00,CLR,,0.00,WeatherDisplay:10.37,2013-06-14 09:29:00,
2013-06-14 04:30:00,60.4,44.2,29.20,ENE,76,0.0,0.0,55,0.00,CLR,,0.00,WeatherDisplay:10.37,2013-06-14 09:30:00,
2013-06-14 04:31:00,60.4,44.2,29.20,ESE,112,1.6,2.0,55,0.00,CLR,,0.00,WeatherDisplay:10.37,2013-06-14 09:31:00,
2013-06-14 04:32:00,60.4,44.2,29.20,ESE,112,2.3,2.3,55,0.00,CLR,,0.00,WeatherDisplay:10.37,2013-06-14 09:32:00,
2013-06-14 04:36:00,60.4,44.2,29.20,South,180,0.0,0.0,55,0.00,CLR,,0.00,WeatherDisplay:10.37,2013-06-14 09:36:00,
2013-06-14 04:37:00,60.4,44.2,29.20,South,180,0.0,0.0,55,0.00,CLR,,0.00,WeatherDisplay:10.37,2013-06-14 09:37:00,
2013-06-14 04:38:00,60.4,44.2,29.20,ESE,112,1.1,0.0,55,0.00,CLR,,0.00,WeatherDisplay:10.37,2013-06-14 09:38:00,
2013-06-14 04:42:00,60.3,44.0,29.20,SSE,158,2.3,2.3,55,0.00,CLR,,0.00,WeatherDisplay:10.37,2013-06-14 09:42:00,
2013-06-14 04:43:00,60.3,44.5,29.20,SE,135,2.3,2.3,56,0.00,CLR,,0.00,WeatherDisplay:10.37,2013-06-14 09:43:00,
2013-06-14 04:44:00,60.3,44.5,29.20,East,90,1.4,0.0,56,0.00,CLR,,0.00,WeatherDisplay:10.37,2013-06-14 09:44:00,
2013-06-14 04:46:00,60.3,44.0,29.20,ENE,68,2.3,2.3,55,0.00,CLR,,0.00,WeatherDisplay:10.37,2013-06-14 09:46:00,
2013-06-14 04:47:00,60.3,44.5,29.20,North,0,2.3,2.3,56,0.00,CLR,,0.00,WeatherDisplay:10.37,2013-06-14 09:47:00,
2013-06-14 04:49:00,60.3,44.0,29.18,ESE,112,3.5,3.5,55,0.00,CLR,,0.00,WeatherDisplay:10.37,2013-06-14 09:49:00,
2013-06-14 04:50:00,60.1,43.9,29.18,SE,135,3.5,3.5,55,0.00,CLR,,0.00,WeatherDisplay:10.37,2013-06-14 09:50:00,
2013-06-14 04:53:00,60.1,43.9,29.18,NNE,22,2.3,2.3,55,0.00,CLR,,0.00,WeatherDisplay:10.37,2013-06-14 09:53:00,
2013-06-14 04:55:00,60.1,44.3,29.18,NE,45,2.3,2.3,56,0.00,CLR,,0.00,WeatherDisplay:10.37,2013-06-14 09:55:00,
2013-06-14 04:56:00,60.1,44.3,29.18,ENE,68,1.1,1.1,56,0.00,CLR,,0.00,WeatherDisplay:10.37,2013-06-14 09:56:00,
2013-06-14 04:57:00,60.1,44.3,29.18,NE,45,3.5,3.5,56,0.00,CLR,,0.00,WeatherDisplay:10.37,2013-06-14 09:57:00,
2013-06-14 05:00:00,60.1,44.8,29.18,NE,52,1.0,0.0,57,0.00,CLR,,0.00,WeatherDisplay:10.37,2013-06-14 10:00:00,
2013-06-14 05:01:00,60.1,44.3,29.18,NE,45,1.4,1.4,56,0.00,CLR,,0.00,WeatherDisplay:10.37,2013-06-14 10:01:00,
2013-06-14 05:02:00,60.1,44.8,29.18,ENE,68,1.1,1.1,57,0.00,CLR,,0.00,WeatherDisplay:10.37,2013-06-14 10:02:00,
2013-06-14 05:03:00,59.9,44.2,29.18,ENE,68,2.2,2.2,56,0.00,CLR,,0.00,WeatherDisplay:10.37,2013-06-14 10:03:00,
2013-06-14 05:06:00,59.9,44.2,29.20,East,90,2.0,2.0,56,0.00,CLR,,0.00,WeatherDisplay:10.37,2013-06-14 10:06:00,
2013-06-14 05:08:00,59.7,44.5,29.20,ESE,112,2.6,0.0,57,0.00,CLR,,0.00,WeatherDisplay:10.37,2013-06-14 10:08:00,
2013-06-14 05:09:00,59.7,44.0,29.20,East,90,3.5,3.5,56,0.00,CLR,,0.00,WeatherDisplay:10.37,2013-06-14 10:09:00,
2013-06-14 05:10:00,59.7,44.0,29.20,ENE,68,3.5,3.5,56,0.00,CLR,,0.00,WeatherDisplay:10.37,2013-06-14 10:10:00,
2013-06-14 05:11:00,59.7,44.5,29.20,ENE,68,2.6,2.6,57,0.00,CLR,,0.00,WeatherDisplay:10.37,2013-06-14 10:11:00,
2013-06-14 05:12:00,59.7,44.5,29.20,ESE,112,2.4,2.4,57,0.00,CLR,,0.00,WeatherDisplay:10.37,2013-06-14 10:12:00,
2013-06-14 05:13:00,59.7,44.5,29.20,ENE,68,2.3,2.3,57,0.00,CLR,,0.00,WeatherDisplay:10.37,2013-06-14 10:13:00,
2013-06-14 05:15:00,59.7,44.5,29.20,East,79,1.0,0.0,57,0.00,CLR,,0.00,WeatherDisplay:10.37,2013-06-14 10:15:00,
2013-06-14 05:17:00,59.7,44.5,29.20,ESE,112,3.5,3.5,57,0.00,CLR,,0.00,WeatherDisplay:10.37,2013-06-14 10:17:00,
2013-06-14 05:19:00,59.7,44.5,29.20,NE,45,2.3,2.3,57,0.00,CLR,,0.00,WeatherDisplay:10.37,2013-06-14 10:19:00,
2013-06-14 05:20:00,59.7,44.5,29.20,ENE,77,0.0,0.0,57,0.00,CLR,,0.00,WeatherDisplay:10.37,2013-06-14 10:20:00,
2013-06-14 05:22:00,59.7,44.5,29.20,NNE,22,0.0,0.0,57,0.00,CLR,,0.00,WeatherDisplay:10.37,2013-06-14 10:22:00,
2013-06-14 05:23:00,59.7,44.5,29.20,NNE,22,1.1,1.1,57,0.00,CLR,,0.00,WeatherDisplay:10.37,2013-06-14 10:23:00,
2013-06-14 05:24:00,59.7,44.5,29.20,NNE,22,1.1,1.1,57,0.00,CLR,,0.00,WeatherDisplay:10.37,2013-06-14 10:24:00,
2013-06-14 05:26:00,59.5,44.3,29.20,NNE,22,2.9,2.9,57,0.00,CLR,,0.00,WeatherDisplay:10.37,2013-06-14 10:26:00,
2013-06-14 05:28:00,59.5,44.7,29.20,NE,45,2.3,2.3,58,0.00,CLR,,0.00,WeatherDisplay:10.37,2013-06-14 10:28:00,
2013-06-14 05:29:00,59.5,44.7,29.20,ENE,68,2.3,2.3,58,0.00,CLR,,0.00,WeatherDisplay:10.37,2013-06-14 10:29:00,
2013-06-14 05:31:00,59.4,44.6,29.20,East,90,0.0,0.0,58,0.00,CLR,,0.00,WeatherDisplay:10.37,2013-06-14 10:31:00,
2013-06-14 05:33:00,59.4,44.6,29.20,ENE,68,1.4,1.4,58,0.00,CLR,,0.00,WeatherDisplay:10.37,2013-06-14 10:33:00,
2013-06-14 05:34:00,59.4,44.6,29.20,ENE,68,2.3,2.3,58,0.00,CLR,,0.00,WeatherDisplay:10.37,2013-06-14 10:34:00,
2013-06-14 05:37:00,59.4,45.0,29.20,NE,45,1.1,0.0,59,0.00,CLR,,0.00,WeatherDisplay:10.37,2013-06-14 10:37:00,
2013-06-14 05:38:00,59.4,45.0,29.20,NE,45,1.1,0.0,59,0.00,CLR,,0.00,WeatherDisplay:10.37,2013-06-14 10:38:00,
2013-06-14 05:39:00,59.4,45.0,29.20,NE,45,1.1,0.0,59,0.00,CLR,,0.00,WeatherDisplay:10.37,2013-06-14 10:39:00,
2013-06-14 05:40:00,59.4,45.0,29.20,SSE,158,0.0,0.0,59,0.00,CLR,,0.00,WeatherDisplay:10.37,2013-06-14 10:40:00,
2013-06-14 05:42:00,59.4,45.0,29.20,South,180,0.0,0.0,59,0.00,CLR,,0.00,WeatherDisplay:10.37,2013-06-14 10:42:00,
2013-06-14 05:43:00,59.4,45.0,29.20,ESE,112,1.1,0.0,59,0.00,CLR,,0.00,WeatherDisplay:10.37,2013-06-14 10:43:00,
2013-06-14 05:45:00,59.4,45.0,29.20,East,97,1.0,0.0,59,0.00,CLR,,0.00,WeatherDisplay:10.37,2013-06-14 10:45:00,
2013-06-14 05:46:00,59.4,45.0,29.20,SE,135,2.3,2.3,59,0.00,CLR,,0.00,WeatherDisplay:10.37,2013-06-14 10:46:00,
2013-06-14 05:48:00,59.4,45.0,29.20,SSE,158,1.1,0.0,59,0.00,CLR,,0.00,WeatherDisplay:10.37,2013-06-14 10:48:00,
2013-06-14 05:50:00,59.4,45.0,29.24,ESE,112,2.3,2.3,59,0.00,CLR,,0.00,WeatherDisplay:10.37,2013-06-14 10:50:00,
2013-06-14 05:53:00,59.4,45.0,29.24,East,90,0.0,0.0,59,0.00,CLR,,0.00,WeatherDisplay:10.37,2013-06-14 10:53:00,
2013-06-14 05:54:00,59.5,45.2,29.24,East,90,0.0,0.0,59,0.00,CLR,,0.00,WeatherDisplay:10.37,2013-06-14 10:54:00,
2013-06-14 05:55:00,59.5,45.2,29.24,East,90,0.0,0.0,59,0.00,CLR,,0.00,WeatherDisplay:10.37,2013-06-14 10:55:00,
2013-06-14 05:59:00,59.5,45.2,29.24,South,180,0.9,0.0,59,0.00,CLR,,0.00,WeatherDisplay:10.37,2013-06-14 10:59:00,
2013-06-14 06:00:00,59.5,45.2,29.24,SSW,202,1.1,0.0,59,0.00,CLR,,0.00,WeatherDisplay:10.37,2013-06-14 11:00:00,
2013-06-14 06:04:00,59.7,45.4,29.20,NE,45,0.0,0.0,59,0.00,CLR,,0.00,WeatherDisplay:10.37,2013-06-14 11:04:00,
2013-06-14 06:05:00,59.7,45.4,29.20,East,86,0.0,0.0,59,0.00,CLR,,0.00,WeatherDisplay:10.37,2013-06-14 11:05:00,
2013-06-14 06:08:00,59.7,45.4,29.20,NNE,22,0.0,0.0,59,0.00,CLR,,0.00,WeatherDisplay:10.37,2013-06-14 11:08:00,
2013-06-14 06:11:00,59.9,45.5,29.20,NNE,22,0.0,0.0,59,0.00,CLR,,0.00,WeatherDisplay:10.37,2013-06-14 11:11:00,
2013-06-14 06:12:00,59.9,45.5,29.20,NNE,22,0.0,0.0,59,0.00,CLR,,0.00,WeatherDisplay:10.37,2013-06-14 11:12:00,
2013-06-14 06:15:00,60.1,45.2,29.20,ESE,112,0.0,0.0,58,0.00,CLR,,0.00,WeatherDisplay:10.37,2013-06-14 11:15:00,
2013-06-14 06:17:00,60.1,45.2,29.20,ESE,112,0.0,0.0,58,0.00,CLR,,0.00,WeatherDisplay:10.37,2013-06-14 11:17:00,
2013-06-14 06:18:00,60.1,45.2,29.20,ENE,68,0.0,0.0,58,0.00,CLR,,0.00,WeatherDisplay:10.37,2013-06-14 11:18:00,
2013-06-14 06:19:00,60.3,45.4,29.24,NE,45,2.6,2.6,58,0.00,CLR,,0.00,WeatherDisplay:10.37,2013-06-14 11:19:00,
2013-06-14 06:20:00,60.3,45.4,29.24,East,90,2.3,2.3,58,0.00,CLR,,0.00,WeatherDisplay:10.37,2013-06-14 11:20:00,
2013-06-14 06:22:00,60.4,45.6,29.24,ENE,68,1.1,0.0,58,0.00,CLR,,0.00,WeatherDisplay:10.37,2013-06-14 11:22:00,
2013-06-14 06:24:00,60.6,45.8,29.24,NE,45,0.0,0.0,58,0.00,CLR,,0.00,WeatherDisplay:10.37,2013-06-14 11:24:00,
2013-06-14 06:26:00,60.8,45.5,29.24,ESE,112,2.4,0.0,57,0.00,CLR,,0.00,WeatherDisplay:10.37,2013-06-14 11:26:00,
2013-06-14 06:27:00,61.0,45.6,29.24,ENE,68,2.3,2.3,57,0.00,CLR,,0.00,WeatherDisplay:10.37,2013-06-14 11:27:00,
2013-06-14 06:30:00,61.2,45.8,29.24,NNE,22,2.0,0.0,57,0.00,CLR,,0.00,WeatherDisplay:10.37,2013-06-14 11:30:00,
2013-06-14 06:32:00,61.5,45.7,29.24,NE,45,2.3,2.3,56,0.00,CLR,,0.00,WeatherDisplay:10.37,2013-06-14 11:32:00,
2013-06-14 06:33:00,61.7,45.8,29.20,NE,45,2.4,2.4,56,0.00,CLR,,0.00,WeatherDisplay:10.37,2013-06-14 11:33:00,
2013-06-14 06:34:00,61.7,45.4,29.20,NNE,22,3.5,3.5,55,0.00,CLR,,0.00,WeatherDisplay:10.37,2013-06-14 11:34:00,
2013-06-14 06:35:00,61.8,45.5,29.20,NE,48,2.0,0.0,55,0.00,CLR,,0.00,WeatherDisplay:10.37,2013-06-14 11:35:00,
2013-06-14 06:37:00,62.1,45.2,29.20,NE,45,2.4,2.4,54,0.00,CLR,,0.00,WeatherDisplay:10.37,2013-06-14 11:37:00,
2013-06-14 06:38:00,62.1,45.2,29.20,ENE,68,2.3,2.3,54,0.00,CLR,,0.00,WeatherDisplay:10.37,2013-06-14 11:38:00,
2013-06-14 06:40:00,62.2,45.4,29.20,ENE,58,2.0,0.0,54,0.00,CLR,,0.00,WeatherDisplay:10.37,2013-06-14 11:40:00,
2013-06-14 06:43:00,62.6,45.2,29.20,ESE,112,1.1,1.1,53,0.00,CLR,,0.00,WeatherDisplay:10.37,2013-06-14 11:43:00,
2013-06-14 06:45:00,62.9,45.5,29.20,East,80,1.0,0.0,53,0.00,CLR,,0.00,WeatherDisplay:10.37,2013-06-14 11:45:00,
2013-06-14 06:46:00,63.1,45.7,29.20,SE,135,1.1,0.0,53,0.00,CLR,,0.00,WeatherDisplay:10.37,2013-06-14 11:46:00,
2013-06-14 06:47:00,63.1,45.7,29.20,SE,135,1.6,0.0,53,0.00,CLR,,0.00,WeatherDisplay:10.37,2013-06-14 11:47:00,
2013-06-14 06:48:00,63.3,45.4,29.20,ESE,112,1.1,1.1,52,0.00,CLR,,0.00,WeatherDisplay:10.37,2013-06-14 11:48:00,
2013-06-14 06:50:00,63.6,45.1,29.20,ESE,109,0.0,0.0,51,0.00,CLR,,0.00,WeatherDisplay:10.37,2013-06-14 11:50:00,
2013-06-14 06:52:00,63.9,44.9,29.20,SE,135,0.0,0.0,50,0.00,CLR,,0.00,WeatherDisplay:10.37,2013-06-14 11:52:00,
2013-06-14 06:53:00,64.2,45.2,29.20,SE,135,0.0,0.0,50,0.00,CLR,,0.00,WeatherDisplay:10.37,2013-06-14 11:53:00,
2013-06-14 06:54:00,64.2,45.2,29.20,SE,135,0.0,0.0,50,0.00,CLR,,0.00,WeatherDisplay:10.37,2013-06-14 11:54:00,
2013-06-14 06:56:00,65.1,46.0,29.20,East,90,2.3,2.3,50,0.00,CLR,,0.00,WeatherDisplay:10.37,2013-06-14 11:56:00,
2013-06-14 06:57:00,65.3,46.2,29.20,East,90,2.3,2.3,50,0.00,CLR,,0.00,WeatherDisplay:10.37,2013-06-14 11:57:00,
2013-06-14 06:58:00,65.5,46.3,29.20,East,90,0.0,0.0,50,0.00,CLR,,0.00,WeatherDisplay:10.37,2013-06-14 11:58:00,
2013-06-14 06:59:00,65.7,45.4,29.20,East,90,0.0,0.0,48,0.00,CLR,,0.00,WeatherDisplay:10.37,2013-06-14 11:59:00,
2013-06-14 07:00:00,65.8,45.6,29.20,East,90,1.1,0.0,48,0.00,CLR,,0.00,WeatherDisplay:10.37,2013-06-14 12:00:00,
2013-06-14 07:01:00,66.0,45.2,29.20,East,90,1.1,0.0,47,0.00,CLR,,0.00,WeatherDisplay:10.37,2013-06-14 12:01:00,
2013-06-14 07:04:00,65.8,43.3,29.24,ENE,68,3.5,3.5,44,0.00,CLR,,0.00,WeatherDisplay:10.37,2013-06-14 12:04:00,
2013-06-14 07:05:00,65.8,43.3,29.24,ENE,68,3.5,3.5,44,0.00,CLR,,0.00,WeatherDisplay:10.37,2013-06-14 12:05:00,
2013-06-14 07:06:00,66.0,44.1,29.24,SE,135,2.3,2.3,45,0.00,CLR,,0.00,WeatherDisplay:10.37,2013-06-14 12:06:00,
2013-06-14 07:10:00,66.2,44.2,29.24,NNE,22,3.5,3.5,45,0.00,CLR,,0.00,WeatherDisplay:10.37,2013-06-14 12:10:00,
2013-06-14 07:11:00,66.4,43.8,29.24,NE,45,1.6,1.6,44,0.00,CLR,,0.00,WeatherDisplay:10.37,2013-06-14 12:11:00,
2013-06-14 07:12:00,66.6,44.0,29.24,East,90,1.1,1.6,44,0.00,CLR,,0.00,WeatherDisplay:10.37,2013-06-14 12:12:00,
2013-06-14 07:14:00,66.4,43.2,29.24,ESE,112,4.6,4.6,43,0.00,CLR,,0.00,WeatherDisplay:10.37,2013-06-14 12:14:00,
2013-06-14 07:18:00,67.1,43.8,29.24,East,90,2.9,2.9,43,0.00,CLR,,0.00,WeatherDisplay:10.37,2013-06-14 12:18:00,
2013-06-14 07:19:00,67.5,44.2,29.24,ESE,112,3.5,3.5,43,0.00,CLR,,0.00,WeatherDisplay:10.37,2013-06-14 12:19:00,
2013-06-14 07:20:00,67.5,42.9,29.24,ENE,68,2.3,2.3,41,0.00,CLR,,0.00,WeatherDisplay:10.37,2013-06-14 12:20:00,
2013-06-14 07:23:00,68.2,44.2,29.24,ENE,68,3.5,3.5,42,0.00,CLR,,0.00,WeatherDisplay:10.37,2013-06-14 12:23:00,
2013-06-14 07:24:00,68.4,44.4,29.24,ESE,112,2.3,2.3,42,0.00,CLR,,0.00,WeatherDisplay:10.37,2013-06-14 12:24:00,
2013-06-14 07:25:00,68.4,43.1,29.24,SE,135,2.3,2.3,40,0.00,CLR,,0.00,WeatherDisplay:10.37,2013-06-14 12:25:00,
2013-06-14 07:26:00,68.5,44.5,29.24,ESE,112,2.9,2.9,42,0.00,CLR,,0.00,WeatherDisplay:10.37,2013-06-14 12:26:00,
2013-06-14 07:29:00,68.5,43.2,29.24,East,90,3.5,3.5,40,0.00,CLR,,0.00,WeatherDisplay:10.37,2013-06-14 12:29:00,
2013-06-14 07:30:00,68.5,43.2,29.24,ESE,112,3.5,3.5,40,0.00,CLR,,0.00,WeatherDisplay:10.37,2013-06-14 12:30:00,
2013-06-14 07:31:00,68.5,43.2,29.24,SE,135,4.0,4.0,40,0.00,CLR,,0.00,WeatherDisplay:10.37,2013-06-14 12:31:00,
2013-06-14 07:33:00,68.5,41.9,29.24,ESE,112,2.3,2.3,38,0.00,CLR,,0.00,WeatherDisplay:10.37,2013-06-14 12:33:00,
2013-06-14 07:34:00,68.5,41.9,29.24,East,90,2.3,2.3,38,0.00,CLR,,0.00,WeatherDisplay:10.37,2013-06-14 12:34:00,
2013-06-14 07:35:00,68.5,41.9,29.24,ESE,112,2.9,2.9,38,0.00,CLR,,0.00,WeatherDisplay:10.37,2013-06-14 12:35:00,
2013-06-14 07:38:00,68.4,40.4,29.24,NNE,22,2.3,2.3,36,0.00,CLR,,0.00,WeatherDisplay:10.37,2013-06-14 12:38:00,
2013-06-14 07:39:00,68.4,40.4,29.24,ENE,68,2.9,2.9,36,0.00,CLR,,0.00,WeatherDisplay:10.37,2013-06-14 12:39:00,
2013-06-14 07:40:00,68.0,40.0,29.24,NE,45,3.5,3.5,36,0.00,CLR,,0.00,WeatherDisplay:10.37,2013-06-14 12:40:00,
2013-06-14 07:43:00,68.0,40.7,29.24,North,0,2.3,2.3,37,0.00,CLR,,0.00,WeatherDisplay:10.37,2013-06-14 12:43:00,
2013-06-14 07:44:00,68.0,40.7,29.24,NE,45,3.5,3.5,37,0.00,CLR,,0.00,WeatherDisplay:10.37,2013-06-14 12:44:00,
2013-06-14 07:45:00,68.0,40.0,29.24,NNE,22,2.3,2.3,36,0.00,CLR,,0.00,WeatherDisplay:10.37,2013-06-14 12:45:00,
2013-06-14 07:48:00,68.4,41.1,29.24,SE,135,2.3,2.3,37,0.00,CLR,,0.00,WeatherDisplay:10.37,2013-06-14 12:48:00,
2013-06-14 07:49:00,68.7,41.4,29.24,ESE,112,3.5,3.5,37,0.00,CLR,,0.00,WeatherDisplay:10.37,2013-06-14 12:49:00,
2013-06-14 07:50:00,68.9,41.5,29.24,SE,135,3.5,3.5,37,0.00,CLR,,0.00,WeatherDisplay:10.37,2013-06-14 12:50:00,
2013-06-14 07:52:00,69.1,41.7,29.24,ESE,112,2.3,2.3,37,0.00,CLR,,0.00,WeatherDisplay:10.37,2013-06-14 12:52:00,
2013-06-14 07:53:00,69.3,41.9,29.24,NNE,22,2.3,2.3,37,0.00,CLR,,0.00,WeatherDisplay:10.37,2013-06-14 12:53:00,
2013-06-14 07:55:00,68.7,40.7,29.24,ESE,112,4.7,4.7,36,0.00,CLR,,0.00,WeatherDisplay:10.37,2013-06-14 12:55:00,
2013-06-14 07:57:00,68.4,40.4,29.24,NNE,22,4.6,4.6,36,0.00,CLR,,0.00,WeatherDisplay:10.37,2013-06-14 12:57:00,
2013-06-14 07:58:00,68.2,39.5,29.24,ENE,68,4.6,4.6,35,0.00,CLR,,0.00,WeatherDisplay:10.37,2013-06-14 12:58:00,
2013-06-14 08:00:00,68.0,40.1,29.24,ENE,60,1.0,0.0,36,0.00,CLR,,0.00,WeatherDisplay:10.37,2013-06-14 13:00:00,
2013-06-14 08:01:00,67.8,40.6,29.24,NE,45,4.6,4.6,37,0.00,CLR,,0.00,WeatherDisplay:10.37,2013-06-14 13:01:00,
2013-06-14 08:03:00,68.0,40.7,29.26,East,90,4.6,4.6,37,0.00,CLR,,0.00,WeatherDisplay:10.37,2013-06-14 13:03:00,
2013-06-14 08:04:00,67.8,40.6,29.26,NE,45,3.6,3.6,37,0.00,CLR,,0.00,WeatherDisplay:10.37,2013-06-14 13:04:00,
2013-06-14 08:06:00,68.0,40.7,29.26,ENE,68,3.5,3.5,37,0.00,CLR,,0.00,WeatherDisplay:10.37,2013-06-14 13:06:00,
2013-06-14 08:08:00,68.5,41.9,29.26,SE,135,3.6,3.6,38,0.00,CLR,,0.00,WeatherDisplay:10.37,2013-06-14 13:08:00,
2013-06-14 08:09:00,68.5,41.9,29.26,South,180,3.5,3.5,38,0.00,CLR,,0.00,WeatherDisplay:10.37,2013-06-14 13:09:00,
2013-06-14 08:10:00,68.7,42.1,29.26,South,180,4.6,4.6,38,0.00,CLR,,0.00,WeatherDisplay:10.37,2013-06-14 13:10:00,
2013-06-14 08:11:00,68.7,41.4,29.26,ESE,112,4.6,4.6,37,0.00,CLR,,0.00,WeatherDisplay:10.37,2013-06-14 13:11:00,
2013-06-14 08:14:00,69.1,42.4,29.26,ESE,112,2.9,2.9,38,0.00,CLR,,0.00,WeatherDisplay:10.37,2013-06-14 13:14:00,
2013-06-14 08:15:00,69.1,41.7,29.26,ENE,68,3.6,3.6,37,0.00,CLR,,0.00,WeatherDisplay:10.37,2013-06-14 13:15:00,
2013-06-14 08:17:00,68.5,40.5,29.26,ENE,68,5.8,5.8,36,0.00,CLR,,0.00,WeatherDisplay:10.37,2013-06-14 13:17:00,
2013-06-14 08:20:00,68.5,40.5,29.26,ENE,68,4.6,4.6,36,0.00,CLR,,0.00,WeatherDisplay:10.37,2013-06-14 13:20:00,
2013-06-14 08:21:00,68.4,40.4,29.26,ENE,68,5.6,5.6,36,0.00,CLR,,0.00,WeatherDisplay:10.37,2013-06-14 13:21:00,
2013-06-14 08:22:00,68.2,40.2,29.26,ENE,68,5.8,5.8,36,0.00,CLR,,0.00,WeatherDisplay:10.37,2013-06-14 13:22:00,
2013-06-14 08:24:00,68.4,40.4,29.26,ESE,112,4.9,4.9,36,0.00,CLR,,0.00,WeatherDisplay:10.37,2013-06-14 13:24:00,
2013-06-14 08:27:00,68.9,41.5,29.26,East,90,3.5,3.5,37,0.00,CLR,,0.00,WeatherDisplay:10.37,2013-06-14 13:27:00,
2013-06-14 08:28:00,68.9,41.5,29.26,ESE,112,3.5,3.5,37,0.00,CLR,,0.00,WeatherDisplay:10.37,2013-06-14 13:28:00,
2013-06-14 08:29:00,69.3,41.9,29.26,ENE,68,2.3,2.3,37,0.00,CLR,,0.00,WeatherDisplay:10.37,2013-06-14 13:29:00,
2013-06-14 08:30:00,69.3,41.9,29.26,East,87,1.0,0.0,37,0.00,CLR,,0.00,WeatherDisplay:10.37,2013-06-14 13:30:00,
2013-06-14 08:33:00,69.4,41.3,29.26,SSE,158,4.6,4.6,36,0.00,CLR,,0.00,WeatherDisplay:10.37,2013-06-14 13:33:00,
2013-06-14 08:34:00,69.4,41.3,29.26,East,90,4.6,4.6,36,0.00,CLR,,0.00,WeatherDisplay:10.37,2013-06-14 13:34:00,
2013-06-14 08:35:00,69.8,40.9,29.26,ENE,68,5.4,5.4,35,0.00,CLR,,0.00,WeatherDisplay:10.37,2013-06-14 13:35:00,
2013-06-14 08:36:00,69.6,40.7,29.26,SSE,158,5.8,5.8,35,0.00,CLR,,0.00,WeatherDisplay:10.37,2013-06-14 13:36:00,
2013-06-14 08:40:00,69.3,40.4,29.26,ENE,68,5.8,5.8,35,0.00,CLR,,0.00,WeatherDisplay:10.37,2013-06-14 13:40:00,
2013-06-14 08:42:00,69.3,40.4,29.26,ESE,112,6.9,6.9,35,0.00,CLR,,0.00,WeatherDisplay:10.37,2013-06-14 13:42:00,
2013-06-14 08:44:00,69.3,40.4,29.26,NE,45,4.6,4.6,35,0.00,CLR,,0.00,WeatherDisplay:10.37,2013-06-14 13:44:00,
2013-06-14 08:45:00,69.3,40.4,29.26,East,90,4.9,4.9,35,0.00,CLR,,0.00,WeatherDisplay:10.37,2013-06-14 13:45:00,
2013-06-14 08:47:00,69.1,40.3,29.26,ESE,112,4.6,4.6,35,0.00,CLR,,0.00,WeatherDisplay:10.37,2013-06-14 13:47:00,
2013-06-14 08:49:00,69.1,40.3,29.26,NNE,22,6.9,6.9,35,0.00,CLR,,0.00,WeatherDisplay:10.37,2013-06-14 13:49:00,
2013-06-14 08:51:00,68.7,39.9,29.26,NNE,22,6.9,6.9,35,0.00,CLR,,0.00,WeatherDisplay:10.37,2013-06-14 13:51:00,
2013-06-14 08:52:00,69.1,40.3,29.26,North,0,6.9,6.9,35,0.00,CLR,,0.00,WeatherDisplay:10.37,2013-06-14 13:52:00,
2013-06-14 08:53:00,69.3,40.4,29.26,East,90,4.6,4.6,35,0.00,CLR,,0.00,WeatherDisplay:10.37,2013-06-14 13:53:00,
2013-06-14 08:56:00,69.3,40.4,29.26,East,90,6.9,6.9,35,0.00,CLR,,0.00,WeatherDisplay:10.37,2013-06-14 13:56:00,
2013-06-14 08:57:00,69.6,40.7,29.26,ENE,68,6.9,6.9,35,0.00,CLR,,0.00,WeatherDisplay:10.37,2013-06-14 13:57:00,
2013-06-14 08:58:00,69.6,40.7,29.26,NE,45,4.6,4.6,35,0.00,CLR,,0.00,WeatherDisplay:10.37,2013-06-14 13:58:00,
2013-06-14 09:00:00,69.7,40.1,29.26,ENE,72,5.0,0.0,34,0.00,CLR,,0.00,WeatherDisplay:10.37,2013-06-14 14:00:00,
2013-06-14 09:01:00,69.8,40.2,29.26,SSE,158,6.9,6.9,34,0.00,CLR,,0.00,WeatherDisplay:10.37,2013-06-14 14:01:00,
2013-06-14 09:02:00,70.0,40.3,29.26,NNE,22,5.8,5.8,34,0.00,CLR,,0.00,WeatherDisplay:10.37,2013-06-14 14:02:00,
2013-06-14 09:03:00,70.3,41.4,29.26,North,0,5.8,5.8,35,0.00,CLR,,0.00,WeatherDisplay:10.37,2013-06-14 14:03:00,
2013-06-14 09:04:00,70.5,40.8,29.26,SE,135,5.8,5.8,34,0.00,CLR,,0.00,WeatherDisplay:10.37,2013-06-14 14:04:00,
2013-06-14 09:05:00,70.5,40.8,29.26,ENE,68,8.1,8.1,34,0.00,CLR,,0.00,WeatherDisplay:10.37,2013-06-14 14:05:00,
2013-06-14 09:07:00,70.2,39.7,29.26,North,0,6.9,6.9,33,0.00,CLR,,0.00,WeatherDisplay:10.37,2013-06-14 14:07:00,
2013-06-14 09:08:00,70.2,39.7,29.26,East,90,5.8,5.8,33,0.00,CLR,,0.00,WeatherDisplay:10.37,2013-06-14 14:08:00,
2013-06-14 09:09:00,70.7,40.9,29.26,NNE,22,4.6,4.6,34,0.00,CLR,,0.00,WeatherDisplay:10.37,2013-06-14 14:09:00,
2013-06-14 09:12:00,71.2,41.4,29.26,NNE,22,5.4,5.4,34,0.00,CLR,,0.00,WeatherDisplay:10.37,2013-06-14 14:12:00,
2013-06-14 09:13:00,71.2,40.6,29.26,ENE,68,7.8,7.8,33,0.00,CLR,,0.00,WeatherDisplay:10.37,2013-06-14 14:13:00,
2013-06-14 09:17:00,71.6,40.2,29.26,NW,315,6.9,6.9,32,0.00,CLR,,0.00,WeatherDisplay:10.37,2013-06-14 14:17:00,
2013-06-14 09:18:00,71.4,40.0,29.24,NNE,22,8.1,8.1,32,0.00,CLR,,0.00,WeatherDisplay:10.37,2013-06-14 14:18:00,
2013-06-14 09:19:00,71.4,40.0,29.24,East,90,5.8,5.8,32,0.00,CLR,,0.00,WeatherDisplay:10.37,2013-06-14 14:19:00,
2013-06-14 09:20:00,71.6,40.1,29.24,ENE,62,5.0,0.0,32,0.00,CLR,,0.00,WeatherDisplay:10.37,2013-06-14 14:20:00,
2013-06-14 09:23:00,72.1,40.6,29.24,ENE,68,6.9,6.9,32,0.00,CLR,,0.00,WeatherDisplay:10.37,2013-06-14 14:23:00,
2013-06-14 09:24:00,72.1,40.6,29.24,ENE,68,6.9,6.9,32,0.00,CLR,,0.00,WeatherDisplay:10.37,2013-06-14 14:24:00,
2013-06-14 09:25:00,72.3,40.8,29.24,ENE,68,3.0,0.0,32,0.00,CLR,,0.00,WeatherDisplay:10.37,2013-06-14 14:25:00,
2013-06-14 09:27:00,72.5,41.0,29.24,ESE,112,5.8,5.8,32,0.00,CLR,,0.00,WeatherDisplay:10.37,2013-06-14 14:27:00,
2013-06-14 09:29:00,72.7,41.1,29.24,ESE,112,3.6,3.6,32,0.00,CLR,,0.00,WeatherDisplay:10.37,2013-06-14 14:29:00,
2013-06-14 09:30:00,72.7,41.1,29.24,ENE,68,2.6,2.6,32,0.00,CLR,,0.00,WeatherDisplay:10.37,2013-06-14 14:30:00,
2013-06-14 09:31:00,72.9,42.1,29.24,ENE,68,4.0,4.0,33,0.00,CLR,,0.00,WeatherDisplay:10.37,2013-06-14 14:31:00,
2013-06-14 09:32:00,72.9,42.1,29.24,ENE,68,5.8,5.8,33,0.00,CLR,,0.00,WeatherDisplay:10.37,2013-06-14 14:32:00,
2013-06-14 09:33:00,72.9,42.1,29.24,ESE,112,6.4,6.4,33,0.00,CLR,,0.00,WeatherDisplay:10.37,2013-06-14 14:33:00,
2013-06-14 09:36:00,72.9,41.3,29.24,ESE,112,4.6,4.6,32,0.00,CLR,,0.00,WeatherDisplay:10.37,2013-06-14 14:36:00,
2013-06-14 09:37:00,72.9,41.3,29.24,ESE,112,5.8,5.8,32,0.00,CLR,,0.00,WeatherDisplay:10.37,2013-06-14 14:37:00,
2013-06-14 09:38:00,73.2,41.6,29.24,SSE,158,3.5,3.5,32,0.00,CLR,,0.00,WeatherDisplay:10.37,2013-06-14 14:38:00,
2013-06-14 09:39:00,73.2,41.6,29.24,ENE,68,3.5,3.5,32,0.00,CLR,,0.00,WeatherDisplay:10.37,2013-06-14 14:39:00,
2013-06-14 09:42:00,73.4,41.7,29.24,ENE,68,5.8,5.8,32,0.00,CLR,,0.00,WeatherDisplay:10.37,2013-06-14 14:42:00,
2013-06-14 09:43:00,73.4,41.7,29.24,SSE,158,3.5,3.5,32,0.00,CLR,,0.00,WeatherDisplay:10.37,2013-06-14 14:43:00,
2013-06-14 09:44:00,73.2,41.6,29.24,ESE,112,3.5,3.5,32,0.00,CLR,,0.00,WeatherDisplay:10.37,2013-06-14 14:44:00,
2013-06-14 09:45:00,73.0,41.4,29.24,SE,135,1.1,0.0,32,0.00,CLR,,0.00,WeatherDisplay:10.37,2013-06-14 14:45:00,
2013-06-14 09:49:00,73.2,41.6,29.20,NE,45,2.4,2.4,32,0.00,CLR,,0.00,WeatherDisplay:10.37,2013-06-14 14:49:00,
2013-06-14 09:50:00,73.2,41.6,29.20,East,97,2.0,0.0,32,0.00,CLR,,0.00,WeatherDisplay:10.37,2013-06-14 14:50:00,
2013-06-14 09:52:00,73.2,41.6,29.20,ENE,68,4.6,4.6,32,0.00,CLR,,0.00,WeatherDisplay:10.37,2013-06-14 14:52:00,
2013-06-14 09:53:00,73.2,41.6,29.20,NE,45,2.3,2.3,32,0.00,CLR,,0.00,WeatherDisplay:10.37,2013-06-14 14:53:00,
2013-06-14 09:54:00,73.2,41.6,29.20,South,180,2.9,2.9,32,0.00,CLR,,0.00,WeatherDisplay:10.37,2013-06-14 14:54:00,
2013-06-14 09:55:00,73.2,41.6,29.20,East,99,3.0,0.0,32,0.00,CLR,,0.00,WeatherDisplay:10.37,2013-06-14 14:55:00,
2013-06-14 09:57:00,73.4,40.9,29.20,SSE,158,5.8,5.8,31,0.00,CLR,,0.00,WeatherDisplay:10.37,2013-06-14 14:57:00,
2013-06-14 09:59:00,73.6,41.9,29.20,SE,135,6.0,6.0,32,0.00,CLR,,0.00,WeatherDisplay:10.37,2013-06-14 14:59:00,
2013-06-14 10:00:00,73.6,41.9,29.20,SE,126,5.0,0.0,32,0.00,CLR,,0.00,WeatherDisplay:10.37,2013-06-14 15:00:00,
2013-06-14 10:02:00,73.6,41.1,29.20,SE,135,5.8,5.8,31,0.00,CLR,,0.00,WeatherDisplay:10.37,2013-06-14 15:02:00,
2013-06-14 10:04:00,73.8,42.0,29.20,East,90,5.8,5.8,32,0.00,CLR,,0.00,WeatherDisplay:10.37,2013-06-14 15:04:00,
2013-06-14 10:05:00,73.5,41.0,29.20,ESE,113,1.0,0.0,31,0.00,CLR,,0.00,WeatherDisplay:10.37,2013-06-14 15:05:00,
2013-06-14 10:07:00,73.4,41.7,29.20,ESE,112,6.9,6.9,32,0.00,CLR,,0.00,WeatherDisplay:10.37,2013-06-14 15:07:00,
2013-06-14 10:10:00,73.6,41.9,29.20,East,100,2.0,0.0,32,0.00,CLR,,0.00,WeatherDisplay:10.37,2013-06-14 15:10:00,
2013-06-14 10:11:00,73.6,41.9,29.20,NE,45,2.6,2.6,32,0.00,CLR,,0.00,WeatherDisplay:10.37,2013-06-14 15:11:00,
2013-06-14 10:13:00,74.1,42.4,29.20,ENE,68,5.8,5.8,32,0.00,CLR,,0.00,WeatherDisplay:10.37,2013-06-14 15:13:00,
2013-06-14 10:16:00,73.9,41.4,29.20,ENE,68,6.0,6.0,31,0.00,CLR,,0.00,WeatherDisplay:10.37,2013-06-14 15:16:00,
2013-06-14 10:18:00,73.9,41.4,29.20,NE,45,6.9,6.9,31,0.00,CLR,,0.00,WeatherDisplay:10.37,2013-06-14 15:18:00,
2013-06-14 10:20:00,73.6,40.2,29.20,ENE,77,3.0,0.0,30,0.00,CLR,,0.00,WeatherDisplay:10.37,2013-06-14 15:20:00,
2013-06-14 10:23:00,74.1,41.5,29.20,SSE,158,6.9,6.9,31,0.00,CLR,,0.00,WeatherDisplay:10.37,2013-06-14 15:23:00,
2013-06-14 10:24:00,74.3,42.5,29.20,ESE,112,6.9,6.9,32,0.00,CLR,,0.00,WeatherDisplay:10.37,2013-06-14 15:24:00,
2013-06-14 10:25:00,74.7,42.8,29.20,ESE,112,6.9,6.9,32,0.00,CLR,,0.00,WeatherDisplay:10.37,2013-06-14 15:25:00,
2013-06-14 10:26:00,74.7,42.0,29.20,South,180,4.6,4.6,31,0.00,CLR,,0.00,WeatherDisplay:10.37,2013-06-14 15:26:00,
2013-06-14 10:29:00,75.2,42.5,29.20,SE,135,5.8,5.8,31,0.00,CLR,,0.00,WeatherDisplay:10.37,2013-06-14 15:29:00,
2013-06-14 10:30:00,75.4,42.6,29.20,ESE,112,5.8,5.8,31,0.00,CLR,,0.00,WeatherDisplay:10.37,2013-06-14 15:30:00,
2013-06-14 10:31:00,75.4,42.6,29.20,SE,135,4.6,4.6,31,0.00,CLR,,0.00,WeatherDisplay:10.37,2013-06-14 15:31:00,
2013-06-14 10:34:00,74.7,40.3,29.18,NE,45,10.4,10.4,29,0.00,CLR,,0.00,WeatherDisplay:10.37,2013-06-14 15:34:00,
2013-06-14 10:35:00,74.5,41.0,29.18,East,90,10.4,10.4,30,0.00,CLR,,0.00,WeatherDisplay:10.37,2013-06-14 15:35:00,
2013-06-14 10:37:00,75.0,42.3,29.18,SE,135,4.6,4.6,31,0.00,CLR,,0.00,WeatherDisplay:10.37,2013-06-14 15:37:00,
2013-06-14 10:39:00,75.6,42.8,29.18,SW,225,5.8,5.8,31,0.00,CLR,,0.00,WeatherDisplay:10.37,2013-06-14 15:39:00,
2013-06-14 10:40:00,75.9,43.1,29.18,SSE,158,8.5,8.5,31,0.00,CLR,,0.00,WeatherDisplay:10.37,2013-06-14 15:40:00,
2013-06-14 10:42:00,75.6,41.1,29.18,SSE,158,5.8,5.8,29,0.00,CLR,,0.00,WeatherDisplay:10.37,2013-06-14 15:42:00,
2013-06-14 10:45:00,76.3,42.6,29.18,ESE,112,4.6,4.6,30,0.00,CLR,,0.00,WeatherDisplay:10.37,2013-06-14 15:45:00,
2013-06-14 10:46:00,76.3,42.6,29.18,SW,225,4.6,4.6,30,0.00,CLR,,0.00,WeatherDisplay:10.37,2013-06-14 15:46:00,
2013-06-14 10:47:00,76.6,42.9,29.18,ESE,112,5.8,5.8,30,0.00,CLR,,0.00,WeatherDisplay:10.37,2013-06-14 15:47:00,
2013-06-14 10:48:00,76.6,42.9,29.18,ESE,112,6.4,6.4,30,0.00,CLR,,0.00,WeatherDisplay:10.37,2013-06-14 15:48:00,
2013-06-14 10:51:00,76.1,40.6,29.18,ENE,68,8.1,8.1,28,0.00,CLR,,0.00,WeatherDisplay:10.37,2013-06-14 15:51:00,
2013-06-14 10:53:00,76.3,39.8,29.18,SE,135,3.5,3.5,27,0.00,CLR,,0.00,WeatherDisplay:10.37,2013-06-14 15:53:00,
2013-06-14 10:55:00,76.3,37.9,29.18,East,90,6.9,6.9,25,0.00,CLR,,0.00,WeatherDisplay:10.37,2013-06-14 15:55:00,
2013-06-14 10:56:00,76.3,39.8,29.18,ENE,68,3.5,3.5,27,0.00,CLR,,0.00,WeatherDisplay:10.37,2013-06-14 15:56:00,
2013-06-14 11:00:00,77.2,42.5,29.18,SSE,158,4.6,4.6,29,0.00,CLR,,0.00,WeatherDisplay:10.37,2013-06-14 16:00:00,
2013-06-14 11:01:00,77.4,41.7,29.18,SSE,158,3.5,3.5,28,0.00,CLR,,0.00,WeatherDisplay:10.37,2013-06-14 16:01:00,
2013-06-14 11:02:00,77.7,42.0,29.18,SE,135,6.9,6.9,28,0.00,CLR,,0.00,WeatherDisplay:10.37,2013-06-14 16:02:00,
2013-06-14 11:04:00,78.1,42.3,29.20,South,180,7.1,7.1,28,0.00,CLR,,0.00,WeatherDisplay:10.37,2013-06-14 16:04:00,
2013-06-14 11:07:00,79.0,44.0,29.20,SW,225,4.6,4.6,29,0.00,CLR,,0.00,WeatherDisplay:10.37,2013-06-14 16:07:00,
2013-06-14 11:08:00,79.3,43.4,29.20,SW,225,1.1,0.0,28,0.00,CLR,,0.00,WeatherDisplay:10.37,2013-06-14 16:08:00,
2013-06-14 11:09:00,79.3,43.4,29.20,SE,135,4.9,4.9,28,0.00,CLR,,0.00,WeatherDisplay:10.37,2013-06-14 16:09:00,
2013-06-14 11:10:00,79.3,43.4,29.20,South,180,4.6,4.6,28,0.00,CLR,,0.00,WeatherDisplay:10.37,2013-06-14 16:10:00,
2013-06-14 11:13:00,79.3,42.4,29.20,WSW,248,1.1,0.0,27,0.00,CLR,,0.00,WeatherDisplay:10.37,2013-06-14 16:13:00,
2013-06-14 11:14:00,79.2,40.3,29.20,West,270,1.1,0.0,25,0.00,CLR,,0.00,WeatherDisplay:10.37,2013-06-14 16:14:00,
2013-06-14 11:15:00,79.3,41.4,29.20,SSW,202,0.0,0.0,26,0.00,CLR,,0.00,WeatherDisplay:10.37,2013-06-14 16:15:00,
2013-06-14 11:16:00,79.2,42.3,29.20,NNW,338,1.1,1.1,27,0.00,CLR,,0.00,WeatherDisplay:10.37,2013-06-14 16:16:00,
2013-06-14 11:20:00,78.6,38.8,29.20,ENE,68,2.3,2.3,24,0.00,CLR,,0.00,WeatherDisplay:10.37,2013-06-14 16:20:00,
2013-06-14 11:21:00,78.4,37.6,29.20,East,90,2.3,2.3,23,0.00,CLR,,0.00,WeatherDisplay:10.37,2013-06-14 16:21:00,
2013-06-14 11:22:00,78.3,39.5,29.20,ESE,112,2.6,2.6,25,0.00,CLR,,0.00,WeatherDisplay:10.37,2013-06-14 16:22:00,
2013-06-14 11:23:00,78.3,39.5,29.20,East,90,3.6,3.6,25,0.00,CLR,,0.00,WeatherDisplay:10.37,2013-06-14 16:23:00,
2013-06-14 11:25:00,78.1,40.4,29.20,ESE,112,5.8,5.8,26,0.00,CLR,,0.00,WeatherDisplay:10.37,2013-06-14 16:25:00,
2013-06-14 11:27:00,78.4,39.7,29.20,SE,135,4.6,4.6,25,0.00,CLR,,0.00,WeatherDisplay:10.37,2013-06-14 16:27:00,
2013-06-14 11:28:00,78.6,39.8,29.20,South,180,4.6,4.6,25,0.00,CLR,,0.00,WeatherDisplay:10.37,2013-06-14 16:28:00,
2013-06-14 11:30:00,78.6,39.8,29.20,SE,135,3.1,3.1,25,0.00,CLR,,0.00,WeatherDisplay:10.37,2013-06-14 16:30:00,
2013-06-14 11:32:00,78.8,40.0,29.20,SSE,158,5.8,5.8,25,0.00,CLR,,0.00,WeatherDisplay:10.37,2013-06-14 16:32:00,
2013-06-14 11:33:00,79.0,40.1,29.20,SW,225,2.3,2.3,25,0.00,CLR,,0.00,WeatherDisplay:10.37,2013-06-14 16:33:00,
2013-06-14 11:37:00,79.2,41.3,29.20,East,90,5.6,5.6,26,0.00,CLR,,0.00,WeatherDisplay:10.37,2013-06-14 16:37:00,
2013-06-14 11:38:00,79.2,41.3,29.20,NE,45,5.8,5.8,26,0.00,CLR,,0.00,WeatherDisplay:10.37,2013-06-14 16:38:00,
2013-06-14 11:39:00,79.3,40.4,29.20,ESE,112,4.6,4.6,25,0.00,CLR,,0.00,WeatherDisplay:10.37,2013-06-14 16:39:00,
2013-06-14 11:40:00,79.3,40.4,29.20,SE,129,3.0,0.0,25,0.00,CLR,,0.00,WeatherDisplay:10.37,2013-06-14 16:40:00,
2013-06-14 11:45:00,79.7,40.8,29.20,SSE,158,5.8,6.2,25,0.00,CLR,,0.00,WeatherDisplay:10.37,2013-06-14 16:45:00,
2013-06-14 11:47:00,79.7,40.8,29.20,South,180,5.8,5.8,25,0.00,CLR,,0.00,WeatherDisplay:10.37,2013-06-14 16:47:00,
2013-06-14 11:48:00,80.1,40.0,29.24,East,90,2.4,2.4,24,0.00,CLR,,0.00,WeatherDisplay:10.37,2013-06-14 16:48:00,
2013-06-14 11:51:00,80.1,42.1,29.24,WNW,292,3.6,3.6,26,0.00,CLR,,0.00,WeatherDisplay:10.37,2013-06-14 16:51:00,
2013-06-14 11:52:00,79.9,39.9,29.24,NW,315,3.5,3.5,24,0.00,CLR,,0.00,WeatherDisplay:10.37,2013-06-14 16:52:00,
2013-06-14 11:53:00,79.9,39.9,29.24,South,180,5.8,5.8,24,0.00,CLR,,0.00,WeatherDisplay:10.37,2013-06-14 16:53:00,
2013-06-14 11:55:00,80.1,38.9,29.24,ESE,112,3.5,3.5,23,0.00,CLR,,0.00,WeatherDisplay:10.37,2013-06-14 16:55:00,
2013-06-14 11:56:00,79.9,38.8,29.24,ESE,112,3.5,3.5,23,0.00,CLR,,0.00,WeatherDisplay:10.37,2013-06-14 16:56:00,
2013-06-14 11:58:00,80.1,37.8,29.24,NE,45,4.6,4.6,22,0.00,CLR,,0.00,WeatherDisplay:10.37,2013-06-14 16:58:00,
2013-06-14 12:00:00,80.1,38.9,29.24,SE,139,3.0,0.0,23,0.00,CLR,,0.00,WeatherDisplay:10.37,2013-06-14 17:00:00,
2013-06-14 12:01:00,80.2,39.1,29.24,SE,135,4.6,4.6,23,0.00,CLR,,0.00,WeatherDisplay:10.37,2013-06-14 17:01:00,
2013-06-14 12:05:00,80.4,39.2,29.20,SE,135,0.0,0.0,23,0.00,CLR,,0.00,WeatherDisplay:10.37,2013-06-14 17:05:00,
2013-06-14 12:06:00,80.2,39.1,29.20,ESE,112,3.1,0.0,23,0.00,CLR,,0.00,WeatherDisplay:10.37,2013-06-14 17:06:00,
2013-06-14 12:09:00,80.2,37.9,29.20,ESE,112,3.5,3.5,22,0.00,CLR,,0.00,WeatherDisplay:10.37,2013-06-14 17:09:00,
2013-06-14 12:10:00,80.4,38.1,29.20,NNW,338,1.1,0.0,22,0.00,CLR,,0.00,WeatherDisplay:10.37,2013-06-14 17:10:00,
2013-06-14 12:11:00,80.4,38.1,29.20,NE,45,2.9,0.0,22,0.00,CLR,,0.00,WeatherDisplay:10.37,2013-06-14 17:11:00,
2013-06-14 12:14:00,79.7,36.3,29.20,SE,135,4.6,4.6,21,0.00,CLR,,0.00,WeatherDisplay:10.37,2013-06-14 17:14:00,
2013-06-14 12:16:00,80.1,36.6,29.20,NE,45,4.6,4.6,21,0.00,CLR,,0.00,WeatherDisplay:10.37,2013-06-14 17:16:00,
2013-06-14 12:19:00,79.7,36.3,29.20,NNE,22,2.6,2.6,21,0.00,CLR,,0.00,WeatherDisplay:10.37,2013-06-14 17:19:00,
2013-06-14 12:20:00,79.7,36.3,29.20,ENE,61,2.0,0.0,21,0.00,CLR,,0.00,WeatherDisplay:10.37,2013-06-14 17:20:00,
2013-06-14 12:21:00,79.5,36.1,29.20,ENE,68,4.0,4.0,21,0.00,CLR,,0.00,WeatherDisplay:10.37,2013-06-14 17:21:00,
2013-06-14 12:22:00,79.5,37.3,29.20,ENE,68,4.6,4.6,22,0.00,CLR,,0.00,WeatherDisplay:10.37,2013-06-14 17:22:00,
2013-06-14 12:26:00,79.7,37.5,29.20,North,0,4.6,4.6,22,0.00,CLR,,0.00,WeatherDisplay:10.37,2013-06-14 17:26:00,
2013-06-14 12:27:00,79.9,37.6,29.20,NE,45,3.5,3.5,22,0.00,CLR,,0.00,WeatherDisplay:10.37,2013-06-14 17:27:00,
2013-06-14 12:28:00,79.9,37.6,29.20,NE,45,5.6,5.6,22,0.00,CLR,,0.00,WeatherDisplay:10.37,2013-06-14 17:28:00,
2013-06-14 12:31:00,80.1,38.9,29.20,NNE,22,4.6,4.6,23,0.00,CLR,,0.00,WeatherDisplay:10.37,2013-06-14 17:31:00,
2013-06-14 12:32:00,80.2,37.9,29.20,West,270,3.5,3.5,22,0.00,CLR,,0.00,WeatherDisplay:10.37,2013-06-14 17:32:00,
2013-06-14 12:33:00,80.1,37.8,29.24,ENE,68,3.1,3.1,22,0.00,CLR,,0.00,WeatherDisplay:10.37,2013-06-14 17:33:00,
2013-06-14 12:36:00,80.2,39.1,29.24,ENE,68,5.8,5.8,23,0.00,CLR,,0.00,WeatherDisplay:10.37,2013-06-14 17:36:00,
2013-06-14 12:37:00,80.4,39.2,29.24,East,90,5.8,5.8,23,0.00,CLR,,0.00,WeatherDisplay:10.37,2013-06-14 17:37:00,
2013-06-14 12:39:00,80.4,38.1,29.24,ENE,68,3.5,3.5,22,0.00,CLR,,0.00,WeatherDisplay:10.37,2013-06-14 17:39:00,
2013-06-14 12:41:00,80.8,38.4,29.24,ESE,112,3.5,3.5,22,0.00,CLR,,0.00,WeatherDisplay:10.37,2013-06-14 17:41:00,
2013-06-14 12:42:00,80.8,38.4,29.24,East,90,3.5,3.5,22,0.00,CLR,,0.00,WeatherDisplay:10.37,2013-06-14 17:42:00,
2013-06-14 12:43:00,80.4,36.9,29.24,SE,135,2.9,2.9,21,0.00,CLR,,0.00,WeatherDisplay:10.37,2013-06-14 17:43:00,
2013-06-14 12:44:00,80.6,38.2,29.24,East,90,3.5,3.5,22,0.00,CLR,,0.00,WeatherDisplay:10.37,2013-06-14 17:44:00,
2013-06-14 12:46:00,80.8,38.4,29.24,SE,135,3.8,3.8,22,0.00,CLR,,0.00,WeatherDisplay:10.37,2013-06-14 17:46:00,
2013-06-14 12:47:00,80.8,38.4,29.24,South,180,2.9,2.9,22,0.00,CLR,,0.00,WeatherDisplay:10.37,2013-06-14 17:47:00,
2013-06-14 12:48:00,81.5,40.1,29.24,SSE,158,3.5,3.5,23,0.00,CLR,,0.00,WeatherDisplay:10.37,2013-06-14 17:48:00,
2013-06-14 12:49:00,81.7,40.3,29.24,South,180,2.3,2.3,23,0.00,CLR,,0.00,WeatherDisplay:10.37,2013-06-14 17:49:00,
2013-06-14 12:50:00,81.7,40.3,29.24,SSW,202,1.6,0.0,23,0.00,CLR,,0.00,WeatherDisplay:10.37,2013-06-14 17:50:00,
2013-06-14 12:52:00,82.0,40.6,29.24,ESE,112,4.6,4.6,23,0.00,CLR,,0.00,WeatherDisplay:10.37,2013-06-14 17:52:00,
2013-06-14 12:53:00,82.2,39.6,29.24,SE,135,3.5,3.5,22,0.00,CLR,,0.00,WeatherDisplay:10.37,2013-06-14 17:53:00,
2013-06-14 12:54:00,82.6,39.9,29.24,SE,135,3.5,3.5,22,0.00,CLR,,0.00,WeatherDisplay:10.37,2013-06-14 17:54:00,
2013-06-14 12:55:00,82.8,40.0,29.24,West,270,3.5,3.5,22,0.00,CLR,,0.00,WeatherDisplay:10.37,2013-06-14 17:55:00,
2013-06-14 12:59:00,82.6,38.7,29.24,WSW,248,4.6,4.6,21,0.00,CLR,,0.00,WeatherDisplay:10.37,2013-06-14 17:59:00,
2013-06-14 13:00:00,82.6,38.7,29.24,South,180,3.5,3.5,21,0.00,CLR,,0.00,WeatherDisplay:10.37,2013-06-14 18:00:00,
2013-06-14 13:01:00,82.6,38.7,29.24,SSE,158,6.0,6.0,21,0.00,CLR,,0.00,WeatherDisplay:10.37,2013-06-14 18:01:00,
2013-06-14 13:02:00,82.9,40.2,29.24,SSW,202,5.8,5.8,22,0.00,CLR,,0.00,WeatherDisplay:10.37,2013-06-14 18:02:00,
2013-06-14 13:04:00,82.9,39.0,29.26,WNW,292,3.5,3.5,21,0.00,CLR,,0.00,WeatherDisplay:10.37,2013-06-14 18:04:00,
2013-06-14 13:06:00,82.9,37.7,29.26,WNW,292,3.5,3.5,20,0.00,CLR,,0.00,WeatherDisplay:10.37,2013-06-14 18:06:00,
2013-06-14 13:07:00,83.1,37.9,29.26,NW,315,3.5,3.5,20,0.00,CLR,,0.00,WeatherDisplay:10.37,2013-06-14 18:07:00,
2013-06-14 13:09:00,83.1,37.9,29.26,North,0,1.1,1.1,20,0.00,CLR,,0.00,WeatherDisplay:10.37,2013-06-14 18:09:00,
2013-06-14 13:12:00,83.3,38.0,29.26,ENE,68,2.3,2.3,20,0.00,CLR,,0.00,WeatherDisplay:10.37,2013-06-14 18:12:00,
2013-06-14 13:13:00,82.8,37.6,29.26,ESE,112,2.3,2.3,20,0.00,CLR,,0.00,WeatherDisplay:10.37,2013-06-14 18:13:00,
2013-06-14 13:14:00,82.6,37.4,29.26,East,90,2.3,2.3,20,0.00,CLR,,0.00,WeatherDisplay:10.37,2013-06-14 18:14:00,
2013-06-14 13:15:00,82.6,37.4,29.26,ENE,67,1.0,0.0,20,0.00,CLR,,0.00,WeatherDisplay:10.37,2013-06-14 18:15:00,
2013-06-14 13:16:00,82.4,37.3,29.26,SSE,158,2.3,2.3,20,0.00,CLR,,0.00,WeatherDisplay:10.37,2013-06-14 18:16:00,
2013-06-14 13:17:00,82.8,37.6,29.26,West,270,2.3,0.0,20,0.00,CLR,,0.00,WeatherDisplay:10.37,2013-06-14 18:17:00,
2013-06-14 13:19:00,82.9,39.0,29.20,NW,315,2.3,2.3,21,0.00,CLR,,0.00,WeatherDisplay:10.37,2013-06-14 18:19:00,
2013-06-14 13:20:00,82.8,37.6,29.20,ESE,117,1.0,0.0,20,0.00,CLR,,0.00,WeatherDisplay:10.37,2013-06-14 18:20:00,
2013-06-14 13:23:00,83.1,37.9,29.20,South,180,3.6,3.6,20,0.00,CLR,,0.00,WeatherDisplay:10.37,2013-06-14 18:23:00,
2013-06-14 13:24:00,83.3,39.3,29.20,South,180,3.5,3.5,21,0.00,CLR,,0.00,WeatherDisplay:10.37,2013-06-14 18:24:00,
2013-06-14 13:25:00,83.5,39.4,29.20,South,180,3.5,3.5,21,0.00,CLR,,0.00,WeatherDisplay:10.37,2013-06-14 18:25:00,
2013-06-14 13:28:00,84.2,38.8,29.20,SSE,158,6.9,6.9,20,0.00,CLR,,0.00,WeatherDisplay:10.37,2013-06-14 18:28:00,
2013-06-14 13:29:00,84.4,38.9,29.20,South,180,6.9,6.9,20,0.00,CLR,,0.00,WeatherDisplay:10.37,2013-06-14 18:29:00,
2013-06-14 13:30:00,84.4,38.9,29.20,SSE,160,3.0,0.0,20,0.00,CLR,,0.00,WeatherDisplay:10.37,2013-06-14 18:30:00,
2013-06-14 13:31:00,84.4,38.9,29.20,SSE,158,4.6,4.6,20,0.00,CLR,,0.00,WeatherDisplay:10.37,2013-06-14 18:31:00,
2013-06-14 13:34:00,84.2,38.8,29.20,ESE,112,3.5,3.8,20,0.00,CLR,,0.00,WeatherDisplay:10.37,2013-06-14 18:34:00,
2013-06-14 13:35:00,84.0,37.3,29.20,ESE,112,4.6,4.6,19,0.00,CLR,,0.00,WeatherDisplay:10.37,2013-06-14 18:35:00,
2013-06-14 13:37:00,83.8,37.2,29.20,SE,135,3.5,3.5,19,0.00,CLR,,0.00,WeatherDisplay:10.37,2013-06-14 18:37:00,
2013-06-14 13:38:00,83.8,37.2,29.20,SE,135,1.1,1.1,19,0.00,CLR,,0.00,WeatherDisplay:10.37,2013-06-14 18:38:00,
2013-06-14 13:40:00,84.0,38.6,29.20,SSW,202,1.6,1.6,20,0.00,CLR,,0.00,WeatherDisplay:10.37,2013-06-14 18:40:00,
2013-06-14 13:41:00,83.8,38.5,29.20,SE,135,2.2,2.2,20,0.00,CLR,,0.00,WeatherDisplay:10.37,2013-06-14 18:41:00,
2013-06-14 13:44:00,84.2,38.8,29.20,WSW,248,1.1,1.1,20,0.00,CLR,,0.00,WeatherDisplay:10.37,2013-06-14 18:44:00,
2013-06-14 13:45:00,84.2,38.8,29.20,SSE,161,0.0,0.0,20,0.00,CLR,,0.00,WeatherDisplay:10.37,2013-06-14 18:45:00,
2013-06-14 13:47:00,84.4,38.9,29.20,SW,225,0.0,0.0,20,0.00,CLR,,0.00,WeatherDisplay:10.37,2013-06-14 18:47:00,
2013-06-14 13:48:00,84.4,38.9,29.20,SW,225,0.9,0.0,20,0.00,CLR,,0.00,WeatherDisplay:10.37,2013-06-14 18:48:00,
2013-06-14 13:49:00,84.4,38.9,29.20,NW,315,1.1,0.0,20,0.00,CLR,,0.00,WeatherDisplay:10.37,2013-06-14 18:49:00,
2013-06-14 13:50:00,84.2,38.8,29.20,SSE,158,1.1,0.0,20,0.00,CLR,,0.00,WeatherDisplay:10.37,2013-06-14 18:50:00,
2013-06-14 13:52:00,84.6,39.1,29.20,SSE,158,1.1,0.0,20,0.00,CLR,,0.00,WeatherDisplay:10.37,2013-06-14 18:52:00,
2013-06-14 13:53:00,84.6,39.1,29.20,SSE,158,2.3,2.3,20,0.00,CLR,,0.00,WeatherDisplay:10.37,2013-06-14 18:53:00,
2013-06-14 13:55:00,84.6,39.1,29.20,SSE,158,1.4,0.0,20,0.00,CLR,,0.00,WeatherDisplay:10.37,2013-06-14 18:55:00,
2013-06-14 13:57:00,84.6,37.8,29.20,SW,225,2.3,2.3,19,0.00,CLR,,0.00,WeatherDisplay:10.37,2013-06-14 18:57:00,
2013-06-14 13:58:00,84.6,39.1,29.20,SE,135,2.3,2.3,20,0.00,CLR,,0.00,WeatherDisplay:10.37,2013-06-14 18:58:00,
2013-06-14 14:01:00,84.7,37.9,29.20,South,180,4.0,4.0,19,0.00,CLR,,0.00,WeatherDisplay:10.37,2013-06-14 19:01:00,
2013-06-14 14:02:00,84.9,38.0,29.20,South,180,4.6,4.6,19,0.00,CLR,,0.00,WeatherDisplay:10.37,2013-06-14 19:02:00,
2013-06-14 14:06:00,84.9,38.0,29.18,WSW,248,1.1,0.0,19,0.00,CLR,,0.00,WeatherDisplay:10.37,2013-06-14 19:06:00,
2013-06-14 14:07:00,84.9,38.0,29.18,West,270,2.0,0.0,19,0.00,CLR,,0.00,WeatherDisplay:10.37,2013-06-14 19:07:00,
2013-06-14 14:08:00,84.2,36.1,29.18,ENE,68,2.9,2.9,18,0.00,CLR,,0.00,WeatherDisplay:10.37,2013-06-14 19:08:00,
2013-06-14 14:10:00,84.2,37.5,29.18,SE,135,2.3,2.3,19,0.00,CLR,,0.00,WeatherDisplay:10.37,2013-06-14 19:10:00,
2013-06-14 14:14:00,84.6,37.8,29.18,SW,225,3.5,3.5,19,0.00,CLR,,0.00,WeatherDisplay:10.37,2013-06-14 19:14:00,
2013-06-14 14:16:00,84.4,37.6,29.18,WSW,248,2.3,2.3,19,0.00,CLR,,0.00,WeatherDisplay:10.37,2013-06-14 19:16:00,
2013-06-14 14:19:00,84.9,38.0,29.20,SSE,158,5.8,5.8,19,0.00,CLR,,0.00,WeatherDisplay:10.37,2013-06-14 19:19:00,
2013-06-14 14:21:00,85.5,38.5,29.20,SSE,158,4.6,4.6,19,0.00,CLR,,0.00,WeatherDisplay:10.37,2013-06-14 19:21:00,
2013-06-14 14:23:00,85.3,38.3,29.20,SW,225,1.6,1.6,19,0.00,CLR,,0.00,WeatherDisplay:10.37,2013-06-14 19:23:00,
2013-06-14 14:25:00,84.9,36.7,29.20,SSE,158,1.4,0.0,18,0.00,CLR,,0.00,WeatherDisplay:10.37,2013-06-14 19:25:00,
2013-06-14 14:26:00,85.1,38.2,29.20,ESE,112,3.8,3.8,19,0.00,CLR,,0.00,WeatherDisplay:10.37,2013-06-14 19:26:00,
2013-06-14 14:28:00,85.1,38.2,29.20,SE,135,2.3,2.3,19,0.00,CLR,,0.00,WeatherDisplay:10.37,2013-06-14 19:28:00,
2013-06-14 14:29:00,84.7,37.9,29.20,NE,45,2.3,2.3,19,0.00,CLR,,0.00,WeatherDisplay:10.37,2013-06-14 19:29:00,
2013-06-14 14:30:00,84.6,37.8,29.20,East,90,2.4,2.4,19,0.00,CLR,,0.00,WeatherDisplay:10.37,2013-06-14 19:30:00,
2013-06-14 14:31:00,84.7,37.9,29.20,NE,45,2.3,2.3,19,0.00,CLR,,0.00,WeatherDisplay:10.37,2013-06-14 19:31:00,
2013-06-14 14:33:00,84.6,37.8,29.20,SE,135,0.0,0.0,19,0.00,CLR,,0.00,WeatherDisplay:10.37,2013-06-14 19:33:00,
2013-06-14 14:35:00,84.7,37.9,29.20,SSE,158,1.1,0.0,19,0.00,CLR,,0.00,WeatherDisplay:10.37,2013-06-14 19:35:00,
2013-06-14 14:36:00,84.7,39.2,29.20,NE,45,3.5,3.5,20,0.00,CLR,,0.00,WeatherDisplay:10.37,2013-06-14 19:36:00,
2013-06-14 14:37:00,84.4,37.6,29.20,ENE,68,4.0,4.0,19,0.00,CLR,,0.00,WeatherDisplay:10.37,2013-06-14 19:37:00,
2013-06-14 14:40:00,84.4,37.6,29.20,East,90,2.3,2.3,19,0.00,CLR,,0.00,WeatherDisplay:10.37,2013-06-14 19:40:00,
2013-06-14 14:42:00,84.6,37.8,29.20,ENE,68,4.6,4.6,19,0.00,CLR,,0.00,WeatherDisplay:10.37,2013-06-14 19:42:00,
2013-06-14 14:45:00,84.0,37.3,29.20,ENE,68,3.6,3.6,19,0.00,CLR,,0.00,WeatherDisplay:10.37,2013-06-14 19:45:00,
2013-06-14 14:47:00,84.0,38.6,29.20,SSE,158,5.8,5.8,20,0.00,CLR,,0.00,WeatherDisplay:10.37,2013-06-14 19:47:00,
2013-06-14 14:48:00,84.0,38.6,29.18,SSE,158,5.8,5.8,20,0.00,CLR,,0.00,WeatherDisplay:10.37,2013-06-14 19:48:00,
2013-06-14 14:51:00,83.5,36.9,29.18,NE,45,5.8,5.8,19,0.00,CLR,,0.00,WeatherDisplay:10.37,2013-06-14 19:51:00,
2013-06-14 14:53:00,82.8,36.3,29.18,South,180,5.8,5.8,19,0.00,CLR,,0.00,WeatherDisplay:10.37,2013-06-14 19:53:00,
2013-06-14 14:54:00,83.1,36.6,29.18,SE,135,3.5,3.5,19,0.00,CLR,,0.00,WeatherDisplay:10.37,2013-06-14 19:54:00,
2013-06-14 14:57:00,83.5,38.2,29.18,SE,135,3.5,3.5,20,0.00,CLR,,0.00,WeatherDisplay:10.37,2013-06-14 19:57:00,
2013-06-14 14:59:00,83.7,38.3,29.18,SE,135,5.8,5.8,20,0.00,CLR,,0.00,WeatherDisplay:10.37,2013-06-14 19:59:00,
2013-06-14 15:00:00,83.7,38.3,29.18,SE,135,4.6,4.6,20,0.00,CLR,,0.00,WeatherDisplay:10.37,2013-06-14 20:00:00,
2013-06-14 15:03:00,83.8,38.5,29.18,SE,135,9.2,9.2,20,0.00,CLR,,0.00,WeatherDisplay:10.37,2013-06-14 20:03:00,
2013-06-14 15:04:00,83.8,37.2,29.18,SE,135,6.9,6.9,19,0.00,CLR,,0.00,WeatherDisplay:10.37,2013-06-14 20:04:00,
2013-06-14 15:05:00,83.8,38.5,29.18,ESE,112,5.8,5.8,20,0.00,CLR,,0.00,WeatherDisplay:10.37,2013-06-14 20:05:00,
2013-06-14 15:09:00,83.7,38.3,29.18,ESE,112,3.5,3.5,20,0.00,CLR,,0.00,WeatherDisplay:10.37,2013-06-14 20:09:00,
2013-06-14 15:10:00,83.8,38.5,29.18,East,90,3.6,3.6,20,0.00,CLR,,0.00,WeatherDisplay:10.37,2013-06-14 20:10:00,
2013-06-14 15:11:00,83.8,37.2,29.18,ENE,68,6.9,6.9,19,0.00,CLR,,0.00,WeatherDisplay:10.37,2013-06-14 20:11:00,
2013-06-14 15:15:00,83.8,38.5,29.18,SE,135,5.8,5.8,20,0.00,CLR,,0.00,WeatherDisplay:10.37,2013-06-14 20:15:00,
2013-06-14 15:18:00,84.2,38.8,29.18,SSE,158,7.8,7.8,20,0.00,CLR,,0.00,WeatherDisplay:10.37,2013-06-14 20:18:00,
2013-06-14 15:19:00,84.2,38.8,29.18,ESE,112,8.1,8.1,20,0.00,CLR,,0.00,WeatherDisplay:10.37,2013-06-14 20:19:00,
2013-06-14 15:20:00,84.2,38.8,29.18,SSW,202,8.1,8.1,20,0.00,CLR,,0.00,WeatherDisplay:10.37,2013-06-14 20:20:00,
2013-06-14 15:21:00,83.5,36.9,29.18,NE,45,3.5,3.5,19,0.00,CLR,,0.00,WeatherDisplay:10.37,2013-06-14 20:21:00,
2013-06-14 15:23:00,82.9,37.7,29.18,SE,135,4.9,4.9,20,0.00,CLR,,0.00,WeatherDisplay:10.37,2013-06-14 20:23:00,
2013-06-14 15:24:00,82.9,37.7,29.18,NE,45,4.6,4.6,20,0.00,CLR,,0.00,WeatherDisplay:10.37,2013-06-14 20:24:00,
2013-06-14 15:25:00,82.9,37.7,29.18,ESE,118,3.0,0.0,20,0.00,CLR,,0.00,WeatherDisplay:10.37,2013-06-14 20:25:00,
2013-06-14 15:26:00,82.9,37.7,29.18,ENE,68,4.6,4.6,20,0.00,CLR,,0.00,WeatherDisplay:10.37,2013-06-14 20:26:00,
2013-06-14 15:28:00,82.9,37.7,29.18,ESE,112,6.4,6.4,20,0.00,CLR,,0.00,WeatherDisplay:10.37,2013-06-14 20:28:00,
2013-06-14 15:29:00,83.1,37.9,29.18,ESE,112,6.9,6.9,20,0.00,CLR,,0.00,WeatherDisplay:10.37,2013-06-14 20:29:00,
2013-06-14 15:30:00,83.1,37.9,29.18,SE,135,6.9,6.9,20,0.00,CLR,,0.00,WeatherDisplay:10.37,2013-06-14 20:30:00,
2013-06-14 15:31:00,82.8,37.6,29.18,ESE,112,6.9,6.9,20,0.00,CLR,,0.00,WeatherDisplay:10.37,2013-06-14 20:31:00,
2013-06-14 15:33:00,82.9,39.0,29.15,South,180,3.5,3.5,21,0.00,CLR,,0.00,WeatherDisplay:10.37,2013-06-14 20:33:00,
2013-06-14 15:34:00,83.1,39.1,29.15,ENE,68,3.5,3.5,21,0.00,CLR,,0.00,WeatherDisplay:10.37,2013-06-14 20:34:00,
2013-06-14 15:35:00,83.1,39.1,29.15,SE,133,1.0,0.0,21,0.00,CLR,,0.00,WeatherDisplay:10.37,2013-06-14 20:35:00,
2013-06-14 15:36:00,82.8,37.6,29.15,East,90,4.6,4.6,20,0.00,CLR,,0.00,WeatherDisplay:10.37,2013-06-14 20:36:00,
2013-06-14 15:40:00,82.8,38.9,29.15,ESE,117,3.0,0.0,21,0.00,CLR,,0.00,WeatherDisplay:10.37,2013-06-14 20:40:00,
2013-06-14 15:41:00,82.9,37.7,29.15,South,180,6.0,6.7,20,0.00,CLR,,0.00,WeatherDisplay:10.37,2013-06-14 20:41:00,
2013-06-14 15:42:00,82.9,37.7,29.15,East,90,5.8,6.7,20,0.00,CLR,,0.00,WeatherDisplay:10.37,2013-06-14 20:42:00,
2013-06-14 15:44:00,82.9,39.0,29.15,SSE,158,8.7,8.7,21,0.00,CLR,,0.00,WeatherDisplay:10.37,2013-06-14 20:44:00,
2013-06-14 15:45:00,82.9,39.0,29.15,ESE,120,5.0,0.0,21,0.00,CLR,,0.00,WeatherDisplay:10.37,2013-06-14 20:45:00,
2013-06-14 15:47:00,83.1,39.1,29.15,ESE,112,5.8,5.8,21,0.00,CLR,,0.00,WeatherDisplay:10.37,2013-06-14 20:47:00,
2013-06-14 15:48:00,83.1,39.1,29.15,ESE,112,4.6,4.6,21,0.00,CLR,,0.00,WeatherDisplay:10.37,2013-06-14 20:48:00,
2013-06-14 15:50:00,83.1,39.1,29.15,SE,135,8.1,8.1,21,0.00,CLR,,0.00,WeatherDisplay:10.37,2013-06-14 20:50:00,
2013-06-14 15:51:00,83.3,39.3,29.15,SE,135,8.1,8.1,21,0.00,CLR,,0.00,WeatherDisplay:10.37,2013-06-14 20:51:00,
2013-06-14 15:52:00,83.3,39.3,29.15,SSE,158,5.4,5.4,21,0.00,CLR,,0.00,WeatherDisplay:10.37,2013-06-14 20:52:00,
2013-06-14 15:53:00,83.1,39.1,29.15,SSE,158,5.6,5.6,21,0.00,CLR,,0.00,WeatherDisplay:10.37,2013-06-14 20:53:00,
2013-06-14 15:55:00,83.1,39.1,29.15,ESE,112,6.9,6.9,21,0.00,CLR,,0.00,WeatherDisplay:10.37,2013-06-14 20:55:00,
2013-06-14 15:56:00,82.9,39.0,29.15,East,90,4.6,4.6,21,0.00,CLR,,0.00,WeatherDisplay:10.37,2013-06-14 20:56:00,
2013-06-14 15:58:00,82.9,39.0,29.15,SE,135,3.8,3.8,21,0.00,CLR,,0.00,WeatherDisplay:10.37,2013-06-14 20:58:00,
2013-06-14 16:00:00,83.1,39.1,29.15,South,180,5.8,5.8,21,0.00,CLR,,0.00,WeatherDisplay:10.37,2013-06-14 21:00:00,
2013-06-14 16:01:00,82.8,38.8,29.15,ENE,68,5.6,5.6,21,0.00,CLR,,0.00,WeatherDisplay:10.37,2013-06-14 21:01:00,
2013-06-14 16:02:00,82.8,40.0,29.15,SSE,158,9.7,9.7,22,0.00,CLR,,0.00,WeatherDisplay:10.37,2013-06-14 21:02:00,
2013-06-14 16:05:00,82.8,38.8,29.15,SSE,158,5.8,5.8,21,0.00,CLR,,0.00,WeatherDisplay:10.37,2013-06-14 21:05:00,
2013-06-14 16:06:00,82.8,38.8,29.15,East,90,9.2,9.2,21,0.00,CLR,,0.00,WeatherDisplay:10.37,2013-06-14 21:06:00,
2013-06-14 16:07:00,82.4,39.7,29.15,SE,135,5.9,5.9,22,0.00,CLR,,0.00,WeatherDisplay:10.37,2013-06-14 21:07:00,
2013-06-14 16:08:00,82.6,38.7,29.15,SE,135,5.9,5.9,21,0.00,CLR,,0.00,WeatherDisplay:10.37,2013-06-14 21:08:00,
2013-06-14 16:10:00,82.4,39.7,29.15,SE,135,5.4,5.4,22,0.00,CLR,,0.00,WeatherDisplay:10.37,2013-06-14 21:10:00,
2013-06-14 16:12:00,82.0,39.4,29.15,SE,135,5.4,5.4,22,0.00,CLR,,0.00,WeatherDisplay:10.37,2013-06-14 21:12:00,
2013-06-14 16:13:00,82.0,39.4,29.15,ENE,68,5.8,5.9,22,0.00,CLR,,0.00,WeatherDisplay:10.37,2013-06-14 21:13:00,
2013-06-14 16:15:00,82.0,39.4,29.15,East,90,9.2,9.2,22,0.00,CLR,,0.00,WeatherDisplay:10.37,2013-06-14 21:15:00,
2013-06-14 16:17:00,81.7,37.9,29.15,ESE,112,9.2,9.2,21,0.00,CLR,,0.00,WeatherDisplay:10.37,2013-06-14 21:17:00,
2013-06-14 16:20:00,81.5,39.0,29.12,ESE,105,3.0,0.0,22,0.00,CLR,,0.00,WeatherDisplay:10.37,2013-06-14 21:20:00,
2013-06-14 16:21:00,81.3,38.8,29.12,ESE,112,4.6,4.6,22,0.00,CLR,,0.00,WeatherDisplay:10.37,2013-06-14 21:21:00,
2013-06-14 16:22:00,81.1,38.7,29.12,East,90,4.6,4.6,22,0.00,CLR,,0.00,WeatherDisplay:10.37,2013-06-14 21:22:00,
2013-06-14 16:25:00,81.3,38.8,29.12,ESE,103,3.0,0.0,22,0.00,CLR,,0.00,WeatherDisplay:10.37,2013-06-14 21:25:00,
2013-06-14 16:26:00,81.0,38.5,29.12,East,90,5.8,5.8,22,0.00,CLR,,0.00,WeatherDisplay:10.37,2013-06-14 21:26:00,
2013-06-14 16:27:00,81.0,39.7,29.12,ESE,112,5.8,5.8,23,0.00,CLR,,0.00,WeatherDisplay:10.37,2013-06-14 21:27:00,
2013-06-14 16:30:00,81.0,38.5,29.12,SSE,158,3.8,3.8,22,0.00,CLR,,0.00,WeatherDisplay:10.37,2013-06-14 21:30:00,
2013-06-14 16:32:00,81.0,39.7,29.12,NNE,22,8.1,8.1,23,0.00,CLR,,0.00,WeatherDisplay:10.37,2013-06-14 21:32:00,
2013-06-14 16:33:00,80.8,38.4,29.12,East,90,6.9,6.9,22,0.00,CLR,,0.00,WeatherDisplay:10.37,2013-06-14 21:33:00,
2013-06-14 16:35:00,80.8,38.4,29.12,ESE,120,3.0,0.0,22,0.00,CLR,,0.00,WeatherDisplay:10.37,2013-06-14 21:35:00,
2013-06-14 16:37:00,80.6,38.2,29.12,ENE,68,6.9,6.9,22,0.00,CLR,,0.00,WeatherDisplay:10.37,2013-06-14 21:37:00,
2013-06-14 16:38:00,80.6,38.2,29.12,SE,135,6.9,6.9,22,0.00,CLR,,0.00,WeatherDisplay:10.37,2013-06-14 21:38:00,
2013-06-14 16:39:00,80.6,38.2,29.12,SSE,158,8.1,8.1,22,0.00,CLR,,0.00,WeatherDisplay:10.37,2013-06-14 21:39:00,
2013-06-14 16:40:00,80.6,38.2,29.12,SE,126,5.0,0.0,22,0.00,CLR,,0.00,WeatherDisplay:10.37,2013-06-14 21:40:00,
2013-06-14 16:41:00,80.6,38.2,29.12,SE,135,6.9,6.9,22,0.00,CLR,,0.00,WeatherDisplay:10.37,2013-06-14 21:41:00,
2013-06-14 16:43:00,80.4,39.2,29.12,ENE,68,4.6,4.6,23,0.00,CLR,,0.00,WeatherDisplay:10.37,2013-06-14 21:43:00,
2013-06-14 16:46:00,80.4,40.3,29.12,ESE,112,6.9,6.9,24,0.00,CLR,,0.00,WeatherDisplay:10.37,2013-06-14 21:46:00,
2013-06-14 16:47:00,80.2,40.2,29.12,East,90,5.8,5.8,24,0.00,CLR,,0.00,WeatherDisplay:10.37,2013-06-14 21:47:00,
2013-06-14 16:48:00,80.2,40.2,29.09,SE,135,5.8,5.8,24,0.00,CLR,,0.00,WeatherDisplay:10.37,2013-06-14 21:48:00,
2013-06-14 16:49:00,80.4,40.3,29.09,SSE,158,5.8,5.8,24,0.00,CLR,,0.00,WeatherDisplay:10.37,2013-06-14 21:49:00,
2013-06-14 16:52:00,80.2,40.2,29.09,East,90,6.9,6.9,24,0.00,CLR,,0.00,WeatherDisplay:10.37,2013-06-14 21:52:00,
2013-06-14 16:53:00,80.2,40.2,29.09,East,90,6.9,6.9,24,0.00,CLR,,0.00,WeatherDisplay:10.37,2013-06-14 21:53:00,
2013-06-14 16:54:00,80.2,39.1,29.09,East,90,5.8,5.8,23,0.00,CLR,,0.00,WeatherDisplay:10.37,2013-06-14 21:54:00,
2013-06-14 16:55:00,80.2,39.1,29.09,ESE,110,3.0,0.0,23,0.00,CLR,,0.00,WeatherDisplay:10.37,2013-06-14 21:55:00,
2013-06-14 16:57:00,80.2,40.2,29.09,West,270,4.6,4.6,24,0.00,CLR,,0.00,WeatherDisplay:10.37,2013-06-14 21:57:00,
2013-06-14 16:59:00,80.1,40.0,29.09,East,90,5.8,5.8,24,0.00,CLR,,0.00,WeatherDisplay:10.37,2013-06-14 21:59:00,
2013-06-14 17:00:00,80.1,40.0,29.09,ESE,104,3.0,0.0,24,0.00,CLR,,0.00,WeatherDisplay:10.37,2013-06-14 22:00:00,
2013-06-14 17:03:00,79.7,39.7,29.09,East,90,5.8,5.8,24,0.00,CLR,,0.00,WeatherDisplay:10.37,2013-06-14 22:03:00,
2013-06-14 17:05:00,79.9,40.9,29.09,ENE,68,4.6,4.6,25,0.00,CLR,,0.00,WeatherDisplay:10.37,2013-06-14 22:05:00,
2013-06-14 17:06:00,79.7,40.8,29.09,NNE,22,5.8,5.8,25,0.00,CLR,,0.00,WeatherDisplay:10.37,2013-06-14 22:06:00,
2013-06-14 17:08:00,79.5,41.6,29.09,NE,45,5.8,5.8,26,0.00,CLR,,0.00,WeatherDisplay:10.37,2013-06-14 22:08:00,
2013-06-14 17:11:00,79.0,39.1,29.09,East,90,8.1,8.1,24,0.00,CLR,,0.00,WeatherDisplay:10.37,2013-06-14 22:11:00,
2013-06-14 17:13:00,79.0,40.1,29.09,NNE,22,5.8,5.8,25,0.00,CLR,,0.00,WeatherDisplay:10.37,2013-06-14 22:13:00,
2013-06-14 17:15:00,78.8,40.0,29.09,ENE,62,5.0,0.0,25,0.00,CLR,,0.00,WeatherDisplay:10.37,2013-06-14 22:15:00,
2013-06-14 17:17:00,78.8,41.0,29.09,NE,45,8.1,8.1,26,0.00,CLR,,0.00,WeatherDisplay:10.37,2013-06-14 22:17:00,
2013-06-14 17:19:00,79.0,40.1,29.09,NNE,22,4.0,4.0,25,0.00,CLR,,0.00,WeatherDisplay:10.37,2013-06-14 22:19:00,
2013-06-14 17:21:00,79.0,44.0,29.09,North,0,5.6,5.6,29,0.00,CLR,,0.00,WeatherDisplay:10.37,2013-06-14 22:21:00,
2013-06-14 17:23:00,79.0,42.1,29.09,East,90,5.8,5.8,27,0.00,CLR,,0.00,WeatherDisplay:10.37,2013-06-14 22:23:00,
2013-06-14 17:25:00,79.2,41.3,29.09,East,84,3.0,0.0,26,0.00,CLR,,0.00,WeatherDisplay:10.37,2013-06-14 22:25:00,
2013-06-14 17:26:00,79.2,41.3,29.09,NNE,22,4.7,4.7,26,0.00,CLR,,0.00,WeatherDisplay:10.37,2013-06-14 22:26:00,
2013-06-14 17:27:00,79.2,41.3,29.09,ENE,68,6.0,6.0,26,0.00,CLR,,0.00,WeatherDisplay:10.37,2013-06-14 22:27:00,
2013-06-14 17:29:00,79.3,40.4,29.09,North,0,5.8,5.8,25,0.00,CLR,,0.00,WeatherDisplay:10.37,2013-06-14 22:29:00,
2013-06-14 17:30:00,79.3,40.4,29.09,East,90,5.8,5.8,25,0.00,CLR,,0.00,WeatherDisplay:10.37,2013-06-14 22:30:00,
2013-06-14 17:32:00,79.5,40.6,29.09,NE,45,3.5,3.5,25,0.00,CLR,,0.00,WeatherDisplay:10.37,2013-06-14 22:32:00,
2013-06-14 17:33:00,79.5,39.6,29.09,East,90,4.6,4.6,24,0.00,CLR,,0.00,WeatherDisplay:10.37,2013-06-14 22:33:00,
2013-06-14 17:35:00,79.5,39.6,29.09,ESE,112,4.6,4.6,24,0.00,CLR,,0.00,WeatherDisplay:10.37,2013-06-14 22:35:00,
2013-06-14 17:36:00,79.7,40.8,29.09,SSE,158,3.5,3.5,25,0.00,CLR,,0.00,WeatherDisplay:10.37,2013-06-14 22:36:00,
2013-06-14 17:40:00,79.5,40.6,29.09,East,90,4.6,4.6,25,0.00,CLR,,0.00,WeatherDisplay:10.37,2013-06-14 22:40:00,
2013-06-14 17:41:00,79.5,40.6,29.09,ENE,68,6.2,6.2,25,0.00,CLR,,0.00,WeatherDisplay:10.37,2013-06-14 22:41:00,
2013-06-14 17:42:00,79.5,40.6,29.09,SE,135,5.8,5.8,25,0.00,CLR,,0.00,WeatherDisplay:10.37,2013-06-14 22:42:00,
2013-06-14 17:44:00,79.5,39.6,29.09,SE,135,3.5,3.5,24,0.00,CLR,,0.00,WeatherDisplay:10.37,2013-06-14 22:44:00,
2013-06-14 17:45:00,79.5,39.6,29.09,NE,45,3.5,3.5,24,0.00,CLR,,0.00,WeatherDisplay:10.37,2013-06-14 22:45:00,
2013-06-14 17:47:00,79.5,39.6,29.09,ENE,68,3.5,3.5,24,0.00,CLR,,0.00,WeatherDisplay:10.37,2013-06-14 22:47:00,
2013-06-14 17:49:00,79.3,39.4,29.09,East,90,2.3,2.3,24,0.00,CLR,,0.00,WeatherDisplay:10.37,2013-06-14 22:49:00,
2013-06-14 17:50:00,79.3,39.4,29.09,SE,135,2.9,2.9,24,0.00,CLR,,0.00,WeatherDisplay:10.37,2013-06-14 22:50:00,
2013-06-14 17:51:00,79.3,39.4,29.09,SE,135,3.3,3.3,24,0.00,CLR,,0.00,WeatherDisplay:10.37,2013-06-14 22:51:00,
2013-06-14 17:53:00,79.7,39.7,29.09,NNE,22,3.5,3.5,24,0.00,CLR,,0.00,WeatherDisplay:10.37,2013-06-14 22:53:00,
2013-06-14 17:54:00,79.7,39.7,29.09,ENE,68,2.3,2.3,24,0.00,CLR,,0.00,WeatherDisplay:10.37,2013-06-14 22:54:00,
2013-06-14 17:56:00,79.7,39.7,29.09,NNE,22,3.5,0.0,24,0.00,CLR,,0.00,WeatherDisplay:10.37,2013-06-14 22:56:00,
2013-06-14 17:58:00,79.7,39.7,29.09,SE,135,3.5,3.5,24,0.00,CLR,,0.00,WeatherDisplay:10.37,2013-06-14 22:58:00,
2013-06-14 18:00:00,79.7,39.7,29.09,ESE,112,0.0,0.0,24,0.00,CLR,,0.00,WeatherDisplay:10.37,2013-06-14 23:00:00,
2013-06-14 18:01:00,79.9,39.9,29.09,ESE,112,3.5,3.5,24,0.00,CLR,,0.00,WeatherDisplay:10.37,2013-06-14 23:01:00,
2013-06-14 18:02:00,79.9,39.9,29.09,ESE,112,3.5,3.5,24,0.00,CLR,,0.00,WeatherDisplay:10.37,2013-06-14 23:02:00,
2013-06-14 18:04:00,79.9,39.9,29.09,NNE,22,3.5,3.5,24,0.00,CLR,,0.00,WeatherDisplay:10.37,2013-06-14 23:04:00,
2013-06-14 18:05:00,79.9,39.9,29.09,East,92,2.0,0.0,24,0.00,CLR,,0.00,WeatherDisplay:10.37,2013-06-14 23:05:00,
2013-06-14 18:07:00,79.9,39.9,29.09,ESE,112,2.3,2.3,24,0.00,CLR,,0.00,WeatherDisplay:10.37,2013-06-14 23:07:00,
2013-06-14 18:09:00,79.9,40.9,29.09,SE,135,3.5,3.5,25,0.00,CLR,,0.00,WeatherDisplay:10.37,2013-06-14 23:09:00,
2013-06-14 18:10:00,79.9,40.9,29.09,ESE,119,2.0,0.0,25,0.00,CLR,,0.00,WeatherDisplay:10.37,2013-06-14 23:10:00,
2013-06-14 18:12:00,79.9,40.9,29.09,ESE,112,3.5,3.5,25,0.00,CLR,,0.00,WeatherDisplay:10.37,2013-06-14 23:12:00,
2013-06-14 18:16:00,79.9,40.9,29.09,SE,135,5.8,5.8,25,0.00,CLR,,0.00,WeatherDisplay:10.37,2013-06-14 23:16:00,
2013-06-14 18:17:00,79.9,39.9,29.09,SE,135,5.8,5.8,24,0.00,CLR,,0.00,WeatherDisplay:10.37,2013-06-14 23:17:00,
2013-06-14 18:18:00,79.9,39.9,29.12,East,90,3.5,3.5,24,0.00,CLR,,0.00,WeatherDisplay:10.37,2013-06-14 23:18:00,
2013-06-14 18:20:00,79.9,39.9,29.12,ESE,112,3.5,3.5,24,0.00,CLR,,0.00,WeatherDisplay:10.37,2013-06-14 23:20:00,
2013-06-14 18:22:00,79.9,39.9,29.12,ESE,112,1.1,0.0,24,0.00,CLR,,0.00,WeatherDisplay:10.37,2013-06-14 23:22:00,
2013-06-14 18:23:00,79.9,38.8,29.12,East,90,0.0,0.0,23,0.00,CLR,,0.00,WeatherDisplay:10.37,2013-06-14 23:23:00,
2013-06-14 18:24:00,79.9,39.9,29.12,East,90,0.0,0.0,24,0.00,CLR,,0.00,WeatherDisplay:10.37,2013-06-14 23:24:00,
2013-06-14 18:25:00,79.9,39.9,29.12,East,90,0.0,0.0,24,0.00,CLR,,0.00,WeatherDisplay:10.37,2013-06-14 23:25:00,
2013-06-14 18:27:00,79.9,39.9,29.12,ENE,68,1.1,0.0,24,0.00,CLR,,0.00,WeatherDisplay:10.37,2013-06-14 23:27:00,
2013-06-14 18:29:00,79.7,40.8,29.12,ENE,68,0.0,0.0,25,0.00,CLR,,0.00,WeatherDisplay:10.37,2013-06-14 23:29:00,
2013-06-14 18:30:00,79.5,40.6,29.12,SE,135,0.0,0.0,25,0.00,CLR,,0.00,WeatherDisplay:10.37,2013-06-14 23:30:00,
2013-06-14 18:31:00,79.5,40.6,29.12,East,90,2.3,2.3,25,0.00,CLR,,0.00,WeatherDisplay:10.37,2013-06-14 23:31:00,
2013-06-14 18:33:00,79.5,39.6,29.12,SE,135,2.3,2.3,24,0.00,CLR,,0.00,WeatherDisplay:10.37,2013-06-14 23:33:00,
2013-06-14 18:35:00,79.5,40.6,29.12,SSE,158,3.5,3.5,25,0.00,CLR,,0.00,WeatherDisplay:10.37,2013-06-14 23:35:00,
2013-06-14 18:36:00,79.5,40.6,29.12,SSE,158,3.5,3.5,25,0.00,CLR,,0.00,WeatherDisplay:10.37,2013-06-14 23:36:00,
2013-06-14 18:38:00,79.5,40.6,29.12,SE,135,2.3,2.3,25,0.00,CLR,,0.00,WeatherDisplay:10.37,2013-06-14 23:38:00,
2013-06-14 18:39:00,79.5,40.6,29.12,SE,135,2.3,2.3,25,0.00,CLR,,0.00,WeatherDisplay:10.37,2013-06-14 23:39:00,
2013-06-14 18:40:00,79.5,40.6,29.12,SE,135,2.3,2.3,25,0.00,CLR,,0.00,WeatherDisplay:10.37,2013-06-14 23:40:00,
2013-06-14 18:43:00,79.3,39.4,29.12,SE,135,1.1,0.0,24,0.00,CLR,,0.00,WeatherDisplay:10.37,2013-06-14 23:43:00,
2013-06-14 18:45:00,79.3,39.4,29.12,SE,134,0.0,0.0,24,0.00,CLR,,0.00,WeatherDisplay:10.37,2013-06-14 23:45:00,
2013-06-14 18:46:00,79.2,40.3,29.12,ENE,68,1.1,0.0,25,0.00,CLR,,0.00,WeatherDisplay:10.37,2013-06-14 23:46:00,
2013-06-14 18:47:00,79.2,41.3,29.12,NE,45,1.1,1.1,26,0.00,CLR,,0.00,WeatherDisplay:10.37,2013-06-14 23:47:00,
2013-06-14 18:48:00,79.2,40.3,29.12,SE,135,2.3,2.3,25,0.00,CLR,,0.00,WeatherDisplay:10.37,2013-06-14 23:48:00,
2013-06-14 18:51:00,79.2,41.3,29.12,SE,135,0.0,0.0,26,0.00,CLR,,0.00,WeatherDisplay:10.37,2013-06-14 23:51:00,
2013-06-14 18:52:00,79.2,41.3,29.12,East,90,0.0,0.0,26,0.00,CLR,,0.00,WeatherDisplay:10.37,2013-06-14 23:52:00,
2013-06-14 18:55:00,79.0,43.1,29.12,ENE,68,0.0,0.0,28,0.00,CLR,,0.00,WeatherDisplay:10.37,2013-06-14 23:55:00,
2013-06-14 18:56:00,79.0,43.1,29.12,ENE,68,0.0,0.0,28,0.00,CLR,,0.00,WeatherDisplay:10.37,2013-06-14 23:56:00,
2013-06-14 18:57:00,78.8,42.9,29.12,ENE,68,0.0,0.0,28,0.00,CLR,,0.00,WeatherDisplay:10.37,2013-06-14 23:57:00,
2013-06-14 18:59:00,78.8,42.9,29.12,South,180,0.0,0.0,28,0.00,CLR,,0.00,WeatherDisplay:10.37,2013-06-14 23:59:00,
2013-06-14 19:02:00,78.6,44.6,29.12,SE,135,1.1,0.0,30,0.00,CLR,,0.00,WeatherDisplay:10.37,2013-06-15 00:02:00,
2013-06-14 19:03:00,78.6,42.8,29.15,SE,135,0.0,0.0,28,0.00,CLR,,0.00,WeatherDisplay:10.37,2013-06-15 00:03:00,
2013-06-14 19:04:00,78.4,43.5,29.15,East,90,0.0,0.0,29,0.00,CLR,,0.00,WeatherDisplay:10.37,2013-06-15 00:04:00,
2013-06-14 19:07:00,78.3,44.3,29.15,ENE,68,0.0,0.0,30,0.00,CLR,,0.00,WeatherDisplay:10.37,2013-06-15 00:07:00,
2013-06-14 19:08:00,78.3,44.3,29.15,ENE,68,0.0,0.0,30,0.00,CLR,,0.00,WeatherDisplay:10.37,2013-06-15 00:08:00,
2013-06-14 19:09:00,78.3,44.3,29.15,ENE,68,0.0,0.0,30,0.00,CLR,,0.00,WeatherDisplay:10.37,2013-06-15 00:09:00,
2013-06-14 19:10:00,78.3,44.3,29.15,ENE,68,0.0,0.0,30,0.00,CLR,,0.00,WeatherDisplay:10.37,2013-06-15 00:10:00,
2013-06-14 19:12:00,78.3,44.3,29.15,ENE,68,0.0,0.0,30,0.00,CLR,,0.00,WeatherDisplay:10.37,2013-06-15 00:12:00,
2013-06-14 19:13:00,78.1,44.1,29.15,ENE,68,0.0,0.0,30,0.00,CLR,,0.00,WeatherDisplay:10.37,2013-06-15 00:13:00,
2013-06-14 19:15:00,78.1,44.1,29.15,ENE,68,0.0,0.0,30,0.00,CLR,,0.00,WeatherDisplay:10.37,2013-06-15 00:15:00,
2013-06-14 19:16:00,77.9,44.0,29.15,ENE,68,0.0,0.0,30,0.00,CLR,,0.00,WeatherDisplay:10.37,2013-06-15 00:16:00,
2013-06-14 19:17:00,77.9,44.0,29.15,ENE,68,0.0,0.0,30,0.00,CLR,,0.00,WeatherDisplay:10.37,2013-06-15 00:17:00,
2013-06-14 19:20:00,77.9,44.0,29.12,ENE,68,0.0,0.0,30,0.00,CLR,,0.00,WeatherDisplay:10.37,2013-06-15 00:20:00,
2013-06-14 19:21:00,77.7,43.8,29.12,ENE,68,0.0,0.0,30,0.00,CLR,,0.00,WeatherDisplay:10.37,2013-06-15 00:21:00,
2013-06-14 19:22:00,77.7,43.8,29.12,ENE,68,0.0,0.0,30,0.00,CLR,,0.00,WeatherDisplay:10.37,2013-06-15 00:22:00,
2013-06-14 19:23:00,77.7,43.8,29.12,ENE,68,0.0,0.0,30,0.00,CLR,,0.00,WeatherDisplay:10.37,2013-06-15 00:23:00,
2013-06-14 19:27:00,77.5,44.5,29.12,ENE,68,0.0,0.0,31,0.00,CLR,,0.00,WeatherDisplay:10.37,2013-06-15 00:27:00,
2013-06-14 19:28:00,77.4,43.5,29.12,ENE,68,0.0,0.0,30,0.00,CLR,,0.00,WeatherDisplay:10.37,2013-06-15 00:28:00,
2013-06-14 19:30:00,77.4,43.5,29.12,ENE,68,0.0,0.0,30,0.00,CLR,,0.00,WeatherDisplay:10.37,2013-06-15 00:30:00,
2013-06-14 19:31:00,77.2,44.2,29.12,ENE,68,0.0,0.0,31,0.00,CLR,,0.00,WeatherDisplay:10.37,2013-06-15 00:31:00,
2013-06-14 19:35:00,77.0,44.0,29.15,ENE,68,0.0,0.0,31,0.00,CLR,,0.00,WeatherDisplay:10.37,2013-06-15 00:35:00,
2013-06-14 19:37:00,76.8,43.9,29.15,South,180,0.0,0.0,31,0.00,CLR,,0.00,WeatherDisplay:10.37,2013-06-15 00:37:00,
2013-06-14 19:38:00,76.8,43.9,29.15,South,180,0.0,0.0,31,0.00,CLR,,0.00,WeatherDisplay:10.37,2013-06-15 00:38:00,
2013-06-14 19:41:00,76.6,43.7,29.15,South,180,0.0,0.0,31,0.00,CLR,,0.00,WeatherDisplay:10.37,2013-06-15 00:41:00,
2013-06-14 19:42:00,76.6,43.7,29.15,South,180,0.0,0.0,31,0.00,CLR,,0.00,WeatherDisplay:10.37,2013-06-15 00:42:00,
2013-06-14 19:43:00,76.6,43.7,29.15,South,180,0.0,0.0,31,0.00,CLR,,0.00,WeatherDisplay:10.37,2013-06-15 00:43:00,
2013-06-14 19:46:00,76.5,43.6,29.15,South,180,0.0,0.0,31,0.00,CLR,,0.00,WeatherDisplay:10.37,2013-06-15 00:46:00,
2013-06-14 19:47:00,76.5,43.6,29.15,South,180,0.0,0.0,31,0.00,CLR,,0.00,WeatherDisplay:10.37,2013-06-15 00:47:00,
2013-06-14 19:50:00,76.3,44.2,29.15,South,180,0.0,0.0,32,0.00,CLR,,0.00,WeatherDisplay:10.37,2013-06-15 00:50:00,
2013-06-14 19:52:00,76.1,44.1,29.15,South,180,0.0,0.0,32,0.00,CLR,,0.00,WeatherDisplay:10.37,2013-06-15 00:52:00,
2013-06-14 19:53:00,76.1,44.1,29.15,South,180,0.0,0.0,32,0.00,CLR,,0.00,WeatherDisplay:10.37,2013-06-15 00:53:00,
2013-06-14 19:55:00,75.9,43.9,29.15,SSE,158,0.0,0.0,32,0.00,CLR,,0.00,WeatherDisplay:10.37,2013-06-15 00:55:00,
2013-06-14 19:56:00,75.9,43.9,29.15,SSE,158,1.1,0.0,32,0.00,CLR,,0.00,WeatherDisplay:10.37,2013-06-15 00:56:00,
2013-06-14 19:58:00,75.7,43.8,29.15,SSE,158,0.0,0.0,32,0.00,CLR,,0.00,WeatherDisplay:10.37,2013-06-15 00:58:00,
2013-06-14 19:59:00,75.7,43.8,29.15,SSE,158,0.0,0.0,32,0.00,CLR,,0.00,WeatherDisplay:10.37,2013-06-15 00:59:00,
2013-06-14 20:01:00,75.6,43.6,29.15,SSE,158,0.0,0.0,32,0.00,CLR,,0.00,WeatherDisplay:10.37,2013-06-15 01:01:00,
2013-06-14 20:03:00,75.6,43.6,29.15,SSE,158,0.0,0.0,32,0.00,CLR,,0.00,WeatherDisplay:10.37,2013-06-15 01:03:00,
2013-06-14 20:04:00,75.4,43.5,29.15,SSE,158,0.0,0.0,32,0.00,CLR,,0.00,WeatherDisplay:10.37,2013-06-15 01:04:00,
2013-06-14 20:05:00,75.4,43.5,29.15,SSE,158,0.0,0.0,32,0.00,CLR,,0.00,WeatherDisplay:10.37,2013-06-15 01:05:00,
2013-06-14 20:06:00,75.4,43.5,29.15,SSE,158,0.0,0.0,32,0.00,CLR,,0.00,WeatherDisplay:10.37,2013-06-15 01:06:00,
2013-06-14 20:09:00,75.2,43.3,29.15,SSE,158,0.0,0.0,32,0.00,CLR,,0.00,WeatherDisplay:10.37,2013-06-15 01:09:00,
2013-06-14 20:10:00,75.2,43.3,29.15,SSE,158,0.0,0.0,32,0.00,CLR,,0.00,WeatherDisplay:10.37,2013-06-15 01:10:00,
2013-06-14 20:11:00,75.2,43.3,29.15,SSE,158,0.0,0.0,32,0.00,CLR,,0.00,WeatherDisplay:10.37,2013-06-15 01:11:00,
2013-06-14 20:15:00,74.8,43.8,29.15,SW,225,0.0,0.0,33,0.00,CLR,,0.00,WeatherDisplay:10.37,2013-06-15 01:15:00,
2013-06-14 20:16:00,74.8,43.8,29.15,SW,225,1.1,0.0,33,0.00,CLR,,0.00,WeatherDisplay:10.37,2013-06-15 01:16:00,
2013-06-14 20:18:00,74.8,43.8,29.15,WSW,248,0.0,0.0,33,0.00,CLR,,0.00,WeatherDisplay:10.37,2013-06-15 01:18:00,
2013-06-14 20:19:00,74.8,43.8,29.15,WSW,248,0.0,0.0,33,0.00,CLR,,0.00,WeatherDisplay:10.37,2013-06-15 01:19:00,
2013-06-14 20:20:00,74.7,43.6,29.15,WSW,248,0.0,0.0,33,0.00,CLR,,0.00,WeatherDisplay:10.37,2013-06-15 01:20:00,
2013-06-14 20:21:00,74.7,43.6,29.15,SSW,202,0.0,0.0,33,0.00,CLR,,0.00,WeatherDisplay:10.37,2013-06-15 01:21:00,
2013-06-14 20:24:00,74.7,43.6,29.15,South,180,2.4,0.0,33,0.00,CLR,,0.00,WeatherDisplay:10.37,2013-06-15 01:24:00,
2013-06-14 20:25:00,74.7,43.6,29.15,South,180,2.3,2.3,33,0.00,CLR,,0.00,WeatherDisplay:10.37,2013-06-15 01:25:00,
2013-06-14 20:28:00,74.5,43.5,29.15,South,180,0.0,0.0,33,0.00,CLR,,0.00,WeatherDisplay:10.37,2013-06-15 01:28:00,
2013-06-14 20:30:00,74.3,43.3,29.15,South,180,1.0,0.0,33,0.00,CLR,,0.00,WeatherDisplay:10.37,2013-06-15 01:30:00,
2013-06-14 20:31:00,74.3,43.3,29.15,SSW,202,1.1,1.1,33,0.00,CLR,,0.00,WeatherDisplay:10.37,2013-06-15 01:31:00,
2013-06-14 20:32:00,74.3,43.3,29.15,South,180,3.5,3.5,33,0.00,CLR,,0.00,WeatherDisplay:10.37,2013-06-15 01:32:00,
2013-06-14 20:33:00,74.3,43.3,29.15,SSW,202,0.0,0.0,33,0.00,CLR,,0.00,WeatherDisplay:10.37,2013-06-15 01:33:00,
2013-06-14 20:35:00,74.1,43.2,29.15,SSW,192,0.0,0.0,33,0.00,CLR,,0.00,WeatherDisplay:10.37,2013-06-15 01:35:00,
2013-06-14 20:36:00,74.1,43.2,29.15,SSW,202,1.1,1.1,33,0.00,CLR,,0.00,WeatherDisplay:10.37,2013-06-15 01:36:00,
2013-06-14 20:38:00,74.1,43.9,29.15,SSW,202,2.3,2.3,34,0.00,CLR,,0.00,WeatherDisplay:10.37,2013-06-15 01:38:00,
2013-06-14 20:39:00,74.1,43.2,29.15,South,180,2.3,2.3,33,0.00,CLR,,0.00,WeatherDisplay:10.37,2013-06-15 01:39:00,
2013-06-14 20:41:00,73.9,43.8,29.15,SSW,202,2.3,0.0,34,0.00,CLR,,0.00,WeatherDisplay:10.37,2013-06-15 01:41:00,
2013-06-14 20:42:00,73.9,43.0,29.15,SSW,202,0.0,0.0,33,0.00,CLR,,0.00,WeatherDisplay:10.37,2013-06-15 01:42:00,
2013-06-14 20:43:00,73.9,43.0,29.15,SSW,202,1.1,0.0,33,0.00,CLR,,0.00,WeatherDisplay:10.37,2013-06-15 01:43:00,
2013-06-14 20:44:00,73.9,43.8,29.15,SSW,202,1.1,0.0,34,0.00,CLR,,0.00,WeatherDisplay:10.37,2013-06-15 01:44:00,
2013-06-14 20:45:00,73.8,43.6,29.15,WSW,248,1.1,0.0,34,0.00,CLR,,0.00,WeatherDisplay:10.37,2013-06-15 01:45:00,
2013-06-14 20:46:00,73.8,43.6,29.15,SSW,202,1.1,1.1,34,0.00,CLR,,0.00,WeatherDisplay:10.37,2013-06-15 01:46:00,
2013-06-14 20:47:00,73.8,43.6,29.15,SSW,202,0.0,0.0,34,0.00,CLR,,0.00,WeatherDisplay:10.37,2013-06-15 01:47:00,
2013-06-14 20:48:00,73.8,43.6,29.15,SSE,158,3.5,0.0,34,0.00,CLR,,0.00,WeatherDisplay:10.37,2013-06-15 01:48:00,
2013-06-14 20:50:00,73.6,43.5,29.15,SSW,202,3.5,3.5,34,0.00,CLR,,0.00,WeatherDisplay:10.37,2013-06-15 01:50:00,
2013-06-14 20:52:00,73.6,43.5,29.15,South,180,2.0,0.0,34,0.00,CLR,,0.00,WeatherDisplay:10.37,2013-06-15 01:52:00,
2013-06-14 20:53:00,73.6,43.5,29.15,South,180,2.3,2.3,34,0.00,CLR,,0.00,WeatherDisplay:10.37,2013-06-15 01:53:00,
2013-06-14 20:55:00,73.6,43.5,29.15,South,180,1.1,0.0,34,0.00,CLR,,0.00,WeatherDisplay:10.37,2013-06-15 01:55:00,
2013-06-14 20:58:00,73.4,43.3,29.15,South,180,0.0,0.0,34,0.00,CLR,,0.00,WeatherDisplay:10.37,2013-06-15 01:58:00,
2013-06-14 20:59:00,73.4,43.3,29.15,South,180,0.0,0.0,34,0.00,CLR,,0.00,WeatherDisplay:10.37,2013-06-15 01:59:00,
2013-06-14 21:00:00,73.4,43.3,29.15,South,181,0.0,0.0,34,0.00,CLR,,0.00,WeatherDisplay:10.37,2013-06-15 02:00:00,
2013-06-14 21:01:00,73.2,43.9,29.15,South,180,0.0,0.0,35,0.00,CLR,,0.00,WeatherDisplay:10.37,2013-06-15 02:01:00,
2013-06-14 21:05:00,73.2,43.9,29.12,South,180,0.0,0.0,35,0.00,CLR,,0.00,WeatherDisplay:10.37,2013-06-15 02:05:00,
2013-06-14 21:06:00,73.2,43.9,29.12,South,180,0.0,0.0,35,0.00,CLR,,0.00,WeatherDisplay:10.37,2013-06-15 02:06:00,
2013-06-14 21:07:00,73.2,43.9,29.12,SSE,158,1.6,0.0,35,0.00,CLR,,0.00,WeatherDisplay:10.37,2013-06-15 02:07:00,
2013-06-14 21:08:00,73.2,43.9,29.12,SSE,158,1.1,1.1,35,0.00,CLR,,0.00,WeatherDisplay:10.37,2013-06-15 02:08:00,
2013-06-14 21:09:00,73.2,43.9,29.12,SSE,158,1.1,0.0,35,0.00,CLR,,0.00,WeatherDisplay:10.37,2013-06-15 02:09:00,
2013-06-14 21:10:00,73.2,43.9,29.12,South,171,0.0,0.0,35,0.00,CLR,,0.00,WeatherDisplay:10.37,2013-06-15 02:10:00,
2013-06-14 21:11:00,73.0,43.8,29.12,SSE,158,1.1,0.0,35,0.00,CLR,,0.00,WeatherDisplay:10.37,2013-06-15 02:11:00,
2013-06-14 21:13:00,73.0,43.8,29.12,SSE,158,2.3,2.3,35,0.00,CLR,,0.00,WeatherDisplay:10.37,2013-06-15 02:13:00,
2013-06-14 21:15:00,73.0,43.8,29.12,SSE,158,1.1,0.0,35,0.00,CLR,,0.00,WeatherDisplay:10.37,2013-06-15 02:15:00,
2013-06-14 21:16:00,73.0,43.8,29.12,SE,135,1.1,1.1,35,0.00,CLR,,0.00,WeatherDisplay:10.37,2013-06-15 02:16:00,
2013-06-14 21:18:00,72.9,43.6,29.15,SE,135,0.0,0.0,35,0.00,CLR,,0.00,WeatherDisplay:10.37,2013-06-15 02:18:00,
2013-06-14 21:20:00,72.9,43.6,29.15,SE,142,0.0,0.0,35,0.00,CLR,,0.00,WeatherDisplay:10.37,2013-06-15 02:20:00,
2013-06-14 21:22:00,72.9,43.6,29.15,SE,135,0.0,0.0,35,0.00,CLR,,0.00,WeatherDisplay:10.37,2013-06-15 02:22:00,
2013-06-14 21:23:00,72.9,43.6,29.15,SE,135,0.0,0.0,35,0.00,CLR,,0.00,WeatherDisplay:10.37,2013-06-15 02:23:00,
2013-06-14 21:24:00,72.7,43.4,29.15,SE,135,1.6,1.6,35,0.00,CLR,,0.00,WeatherDisplay:10.37,2013-06-15 02:24:00,
2013-06-14 21:25:00,72.7,43.4,29.15,SE,135,1.1,1.1,35,0.00,CLR,,0.00,WeatherDisplay:10.37,2013-06-15 02:25:00,
2013-06-14 21:28:00,72.7,43.4,29.15,ESE,112,2.3,2.3,35,0.00,CLR,,0.00,WeatherDisplay:10.37,2013-06-15 02:28:00,
2013-06-14 21:29:00,72.5,43.3,29.15,ESE,112,1.1,0.0,35,0.00,CLR,,0.00,WeatherDisplay:10.37,2013-06-15 02:29:00,
2013-06-14 21:31:00,72.5,43.3,29.15,SE,135,1.1,0.0,35,0.00,CLR,,0.00,WeatherDisplay:10.37,2013-06-15 02:31:00,
2013-06-14 21:32:00,72.3,43.1,29.15,SSE,158,1.6,0.0,35,0.00,CLR,,0.00,WeatherDisplay:10.37,2013-06-15 02:32:00,
2013-06-14 21:34:00,72.3,43.1,29.15,SE,135,2.3,2.3,35,0.00,CLR,,0.00,WeatherDisplay:10.37,2013-06-15 02:34:00,
2013-06-14 21:35:00,72.3,43.9,29.15,SE,135,0.0,0.9,36,0.00,CLR,,0.00,WeatherDisplay:10.37,2013-06-15 02:35:00,
2013-06-14 21:37:00,72.1,43.7,29.15,ESE,112,1.1,0.0,36,0.00,CLR,,0.00,WeatherDisplay:10.37,2013-06-15 02:37:00,
2013-06-14 21:39:00,72.1,43.7,29.15,SE,135,2.6,2.6,36,0.00,CLR,,0.00,WeatherDisplay:10.37,2013-06-15 02:39:00,
2013-06-14 21:40:00,72.1,43.7,29.15,SE,135,2.6,2.6,36,0.00,CLR,,0.00,WeatherDisplay:10.37,2013-06-15 02:40:00,
2013-06-14 21:44:00,72.0,44.3,29.15,East,90,0.0,0.0,37,0.00,CLR,,0.00,WeatherDisplay:10.37,2013-06-15 02:44:00,
2013-06-14 21:45:00,72.0,44.3,29.15,SE,135,2.4,0.0,37,0.00,CLR,,0.00,WeatherDisplay:10.37,2013-06-15 02:45:00,
2013-06-14 21:47:00,71.8,44.1,29.15,ESE,112,2.9,2.9,37,0.00,CLR,,0.00,WeatherDisplay:10.37,2013-06-15 02:47:00,
2013-06-14 21:48:00,71.8,44.1,29.15,ESE,112,3.5,3.5,37,0.00,CLR,,0.00,WeatherDisplay:10.37,2013-06-15 02:48:00,
2013-06-14 21:50:00,71.8,44.1,29.12,ESE,112,2.3,2.3,37,0.00,CLR,,0.00,WeatherDisplay:10.37,2013-06-15 02:50:00,
2013-06-14 21:52:00,71.8,44.1,29.12,SE,135,2.6,0.0,37,0.00,CLR,,0.00,WeatherDisplay:10.37,2013-06-15 02:52:00,
2013-06-14 21:53:00,71.6,43.9,29.12,SSE,158,4.6,4.6,37,0.00,CLR,,0.00,WeatherDisplay:10.37,2013-06-15 02:53:00,
2013-06-14 21:55:00,71.6,43.9,29.12,East,90,4.6,4.6,37,0.00,CLR,,0.00,WeatherDisplay:10.37,2013-06-15 02:55:00,
2013-06-14 21:57:00,71.6,44.6,29.12,SE,135,2.3,2.3,38,0.00,CLR,,0.00,WeatherDisplay:10.37,2013-06-15 02:57:00,
2013-06-14 22:00:00,71.4,44.5,29.12,SE,134,1.0,0.0,38,0.00,CLR,,0.00,WeatherDisplay:10.37,2013-06-15 03:00:00,
2013-06-14 22:01:00,71.4,44.5,29.12,SE,135,3.5,3.5,38,0.00,CLR,,0.00,WeatherDisplay:10.37,2013-06-15 03:01:00,
2013-06-14 22:02:00,71.4,44.5,29.12,SSE,158,5.8,5.8,38,0.00,CLR,,0.00,WeatherDisplay:10.37,2013-06-15 03:02:00,
2013-06-14 22:03:00,71.4,44.5,29.12,SSE,158,5.8,5.8,38,0.00,CLR,,0.00,WeatherDisplay:10.37,2013-06-15 03:03:00,
2013-06-14 22:06:00,71.4,44.5,29.09,SE,135,2.9,0.0,38,0.00,CLR,,0.00,WeatherDisplay:10.37,2013-06-15 03:06:00,
2013-06-14 22:07:00,71.2,44.3,29.09,SSE,158,3.5,3.5,38,0.00,CLR,,0.00,WeatherDisplay:10.37,2013-06-15 03:07:00,
2013-06-14 22:09:00,71.2,44.3,29.09,South,180,4.6,4.6,38,0.00,CLR,,0.00,WeatherDisplay:10.37,2013-06-15 03:09:00,
2013-06-14 22:11:00,71.2,44.3,29.09,ESE,112,3.5,3.5,38,0.00,CLR,,0.00,WeatherDisplay:10.37,2013-06-15 03:11:00,
2013-06-14 22:14:00,71.1,44.2,29.09,South,180,4.6,4.6,38,0.00,CLR,,0.00,WeatherDisplay:10.37,2013-06-15 03:14:00,
2013-06-14 22:15:00,71.1,44.8,29.09,SSE,158,4.6,4.6,39,0.00,CLR,,0.00,WeatherDisplay:10.37,2013-06-15 03:15:00,
2013-06-14 22:16:00,71.1,44.8,29.09,ESE,112,5.8,5.8,39,0.00,CLR,,0.00,WeatherDisplay:10.37,2013-06-15 03:16:00,
2013-06-14 22:17:00,71.1,44.8,29.09,SE,135,5.8,5.8,39,0.00,CLR,,0.00,WeatherDisplay:10.37,2013-06-15 03:17:00,
2013-06-14 22:18:00,71.1,44.2,29.09,ESE,112,5.8,5.8,38,0.00,CLR,,0.00,WeatherDisplay:10.37,2013-06-15 03:18:00,
2013-06-14 22:20:00,70.9,44.7,29.09,South,180,4.6,4.6,39,0.00,CLR,,0.00,WeatherDisplay:10.37,2013-06-15 03:20:00,
2013-06-14 22:22:00,70.9,44.7,29.09,ESE,112,3.8,3.8,39,0.00,CLR,,0.00,WeatherDisplay:10.37,2013-06-15 03:22:00,
2013-06-14 22:23:00,70.9,44.7,29.09,SSE,158,5.8,5.8,39,0.00,CLR,,0.00,WeatherDisplay:10.37,2013-06-15 03:23:00,
2013-06-14 22:24:00,70.9,44.7,29.09,ESE,112,5.8,5.8,39,0.00,CLR,,0.00,WeatherDisplay:10.37,2013-06-15 03:24:00,
2013-06-14 22:27:00,70.9,44.7,29.09,SSE,158,4.6,4.6,39,0.00,CLR,,0.00,WeatherDisplay:10.37,2013-06-15 03:27:00,
2013-06-14 22:29:00,70.9,44.7,29.09,ESE,112,4.9,4.9,39,0.00,CLR,,0.00,WeatherDisplay:10.37,2013-06-15 03:29:00,
2013-06-14 22:30:00,70.9,44.7,29.09,SSE,158,4.6,4.6,39,0.00,CLR,,0.00,WeatherDisplay:10.37,2013-06-15 03:30:00,
2013-06-14 22:31:00,70.7,45.2,29.09,ESE,112,5.8,5.8,40,0.00,CLR,,0.00,WeatherDisplay:10.37,2013-06-15 03:31:00,
2013-06-14 22:34:00,70.7,45.2,29.09,ESE,112,4.6,4.6,40,0.00,CLR,,0.00,WeatherDisplay:10.37,2013-06-15 03:34:00,
2013-06-14 22:35:00,70.7,45.2,29.09,SSE,158,4.6,4.6,40,0.00,CLR,,0.00,WeatherDisplay:10.37,2013-06-15 03:35:00,
2013-06-14 22:36:00,70.7,45.2,29.09,East,90,4.0,4.0,40,0.00,CLR,,0.00,WeatherDisplay:10.37,2013-06-15 03:36:00,
2013-06-14 22:40:00,70.7,45.2,29.09,SE,135,0.0,0.0,40,0.00,CLR,,0.00,WeatherDisplay:10.37,2013-06-15 03:40:00,
2013-06-14 22:41:00,70.5,45.7,29.09,SE,135,2.3,2.3,41,0.00,CLR,,0.00,WeatherDisplay:10.37,2013-06-15 03:41:00,
2013-06-14 22:43:00,70.5,45.7,29.09,SSE,158,4.0,4.0,41,0.00,CLR,,0.00,WeatherDisplay:10.37,2013-06-15 03:43:00,
2013-06-14 22:45:00,70.5,45.0,29.09,SE,135,4.6,4.6,40,0.00,CLR,,0.00,WeatherDisplay:10.37,2013-06-15 03:45:00,
2013-06-14 22:46:00,70.5,45.7,29.09,SSE,158,3.5,3.5,41,0.00,CLR,,0.00,WeatherDisplay:10.37,2013-06-15 03:46:00,
2013-06-14 22:47:00,70.5,45.0,29.09,SE,135,2.4,2.4,40,0.00,CLR,,0.00,WeatherDisplay:10.37,2013-06-15 03:47:00,
2013-06-14 22:48:00,70.3,44.9,29.09,SSW,202,5.8,5.8,40,0.00,CLR,,0.00,WeatherDisplay:10.37,2013-06-15 03:48:00,
2013-06-14 22:52:00,70.3,45.5,29.09,East,90,5.4,5.4,41,0.00,CLR,,0.00,WeatherDisplay:10.37,2013-06-15 03:52:00,
2013-06-14 22:53:00,70.3,45.5,29.09,SE,135,5.8,5.8,41,0.00,CLR,,0.00,WeatherDisplay:10.37,2013-06-15 03:53:00,
2013-06-14 22:54:00,70.3,45.5,29.09,SE,135,3.5,3.5,41,0.00,CLR,,0.00,WeatherDisplay:10.37,2013-06-15 03:54:00,
2013-06-14 22:56:00,70.2,45.4,29.09,SSE,158,3.5,3.5,41,0.00,CLR,,0.00,WeatherDisplay:10.37,2013-06-15 03:56:00,
2013-06-14 22:58:00,70.2,45.4,29.09,ESE,112,5.8,5.8,41,0.00,CLR,,0.00,WeatherDisplay:10.37,2013-06-15 03:58:00,
2013-06-14 22:59:00,70.2,46.0,29.09,SE,135,5.8,5.8,42,0.00,CLR,,0.00,WeatherDisplay:10.37,2013-06-15 03:59:00,
2013-06-14 23:00:00,70.2,46.0,29.09,SE,135,5.8,5.8,42,0.00,CLR,,0.00,WeatherDisplay:10.37,2013-06-15 04:00:00,
2013-06-14 23:01:00,70.0,45.8,29.09,SSE,158,5.8,5.8,42,0.00,CLR,,0.00,WeatherDisplay:10.37,2013-06-15 04:01:00,
2013-06-14 23:02:00,70.0,45.8,29.09,SSE,158,4.6,4.6,42,0.00,CLR,,0.00,WeatherDisplay:10.37,2013-06-15 04:02:00,
2013-06-14 23:04:00,70.0,45.8,29.09,SE,135,5.8,5.8,42,0.00,CLR,,0.00,WeatherDisplay:10.37,2013-06-15 04:04:00,
2013-06-14 23:05:00,70.0,45.8,29.09,SE,130,2.0,0.0,42,0.00,CLR,,0.00,WeatherDisplay:10.37,2013-06-15 04:05:00,
2013-06-14 23:08:00,70.0,45.8,29.09,SSE,158,5.9,5.9,42,0.00,CLR,,0.00,WeatherDisplay:10.37,2013-06-15 04:08:00,
2013-06-14 23:09:00,70.0,45.2,29.09,ESE,112,3.5,3.8,41,0.00,CLR,,0.00,WeatherDisplay:10.37,2013-06-15 04:09:00,
2013-06-14 23:10:00,70.0,45.8,29.09,SE,135,3.5,3.5,42,0.00,CLR,,0.00,WeatherDisplay:10.37,2013-06-15 04:10:00,
2013-06-14 23:13:00,70.0,45.8,29.09,ESE,112,4.6,4.6,42,0.00,CLR,,0.00,WeatherDisplay:10.37,2013-06-15 04:13:00,
2013-06-14 23:15:00,70.0,45.8,29.09,SE,135,4.6,4.6,42,0.00,CLR,,0.00,WeatherDisplay:10.37,2013-06-15 04:15:00,
2013-06-14 23:16:00,70.0,45.8,29.09,SE,135,4.6,4.6,42,0.00,CLR,,0.00,WeatherDisplay:10.37,2013-06-15 04:16:00,
2013-06-14 23:18:00,70.0,45.8,29.09,SSE,158,2.3,2.3,42,0.00,CLR,,0.00,WeatherDisplay:10.37,2013-06-15 04:18:00,
2013-06-14 23:19:00,70.0,45.8,29.09,SE,135,2.3,2.3,42,0.00,CLR,,0.00,WeatherDisplay:10.37,2013-06-15 04:19:00,
2013-06-14 23:20:00,70.0,45.8,29.09,SE,134,0.0,0.0,42,0.00,CLR,,0.00,WeatherDisplay:10.37,2013-06-15 04:20:00,
2013-06-14 23:21:00,70.0,45.8,29.09,South,180,3.8,0.0,42,0.00,CLR,,0.00,WeatherDisplay:10.37,2013-06-15 04:21:00,
2013-06-14 23:23:00,70.0,45.8,29.09,SSE,158,2.3,2.6,42,0.00,CLR,,0.00,WeatherDisplay:10.37,2013-06-15 04:23:00,
2013-06-14 23:25:00,70.0,45.8,29.09,SE,131,2.0,0.0,42,0.00,CLR,,0.00,WeatherDisplay:10.37,2013-06-15 04:25:00,
2013-06-14 23:26:00,70.0,45.8,29.09,ESE,112,3.8,3.8,42,0.00,CLR,,0.00,WeatherDisplay:10.37,2013-06-15 04:26:00,
2013-06-14 23:27:00,70.0,45.8,29.09,SE,135,3.5,3.5,42,0.00,CLR,,0.00,WeatherDisplay:10.37,2013-06-15 04:27:00,
2013-06-14 23:30:00,70.0,45.8,29.09,South,180,1.1,1.4,42,0.00,CLR,,0.00,WeatherDisplay:10.37,2013-06-15 04:30:00,
2013-06-14 23:31:00,70.0,45.2,29.09,SSE,158,2.3,2.3,41,0.00,CLR,,0.00,WeatherDisplay:10.37,2013-06-15 04:31:00,
2013-06-14 23:32:00,70.0,45.8,29.09,South,180,2.3,2.3,42,0.00,CLR,,0.00,WeatherDisplay:10.37,2013-06-15 04:32:00,
2013-06-14 23:34:00,69.8,45.7,29.09,South,180,2.3,2.3,42,0.00,CLR,,0.00,WeatherDisplay:10.37,2013-06-15 04:34:00,
2013-06-14 23:35:00,69.8,45.7,29.09,South,180,1.1,0.0,42,0.00,CLR,,0.00,WeatherDisplay:10.37,2013-06-15 04:35:00,
2013-06-14 23:37:00,69.8,45.7,29.09,SE,135,2.3,2.3,42,0.00,CLR,,0.00,WeatherDisplay:10.37,2013-06-15 04:37:00,
2013-06-14 23:38:00,69.8,45.7,29.09,SE,135,0.0,0.0,42,0.00,CLR,,0.00,WeatherDisplay:10.37,2013-06-15 04:38:00,
2013-06-14 23:40:00,69.8,45.7,29.09,SSE,158,0.0,0.0,42,0.00,CLR,,0.00,WeatherDisplay:10.37,2013-06-15 04:40:00,
2013-06-14 23:41:00,69.8,45.7,29.09,SE,135,1.1,0.0,42,0.00,CLR,,0.00,WeatherDisplay:10.37,2013-06-15 04:41:00,
2013-06-14 23:42:00,69.8,45.7,29.09,ESE,112,1.6,0.0,42,0.00,CLR,,0.00,WeatherDisplay:10.37,2013-06-15 04:42:00,
2013-06-14 23:43:00,69.8,45.7,29.09,NE,45,0.0,0.0,42,0.00,CLR,,0.00,WeatherDisplay:10.37,2013-06-15 04:43:00,
2013-06-14 23:45:00,69.8,45.7,29.09,NE,45,0.0,0.0,42,0.00,CLR,,0.00,WeatherDisplay:10.37,2013-06-15 04:45:00,
2013-06-14 23:46:00,69.8,45.7,29.09,NE,45,0.0,0.0,42,0.00,CLR,,0.00,WeatherDisplay:10.37,2013-06-15 04:46:00,
2013-06-14 23:47:00,69.6,46.1,29.09,NE,45,0.0,0.0,43,0.00,CLR,,0.00,WeatherDisplay:10.37,2013-06-15 04:47:00,
2013-06-14 23:48:00,69.6,46.1,29.09,NE,45,0.0,0.0,43,0.00,CLR,,0.00,WeatherDisplay:10.37,2013-06-15 04:48:00,
2013-06-14 23:49:00,69.6,46.1,29.09,NE,45,0.0,0.0,43,0.00,CLR,,0.00,WeatherDisplay:10.37,2013-06-15 04:49:00,
2013-06-14 23:51:00,69.6,46.1,29.09,NE,45,0.0,0.0,43,0.00,CLR,,0.00,WeatherDisplay:10.37,2013-06-15 04:51:00,
2013-06-14 23:54:00,69.4,46.0,29.09,NE,45,0.0,0.0,43,0.00,CLR,,0.00,WeatherDisplay:10.37,2013-06-15 04:54:00,
2013-06-14 23:55:00,69.4,46.0,29.09,NE,45,0.0,0.0,43,0.00,CLR,,0.00,WeatherDisplay:10.37,2013-06-15 04:55:00,
2013-06-14 23:57:00,69.4,46.0,29.09,South,180,0.0,0.0,43,0.00,CLR,,0.00,WeatherDisplay:10.37,2013-06-15 04:57:00,